Time,TemperatureF,DewpointF,PressureIn,WindDirection,WindDirectionDegrees,WindSpeedMPH,WindSpeedGustMPH,Humidity,HourlyPrecipIn,Conditions,Clouds,dailyrainin,SoftwareType,DateUTC
2013-03-10 00:02:00,54.2,37.4,30.04,SSW,193,1.1,1.1,53,0.00,CLR,,0.00,WeatherDisplay:10.37,2013-03-10 06:02:00,
2013-03-10 00:03:00,54.3,37.5,30.04,SSW,193,0.0,0.0,53,0.00,CLR,,0.00,WeatherDisplay:10.37,2013-03-10 06:03:00,
2013-03-10 00:07:00,54.2,37.4,30.04,SSW,193,1.1,1.1,53,0.00,CLR,,0.00,WeatherDisplay:10.37,2013-03-10 06:07:00,
2013-03-10 00:08:00,54.2,37.4,30.04,SSW,193,1.1,1.1,53,0.00,CLR,,0.00,WeatherDisplay:10.37,2013-03-10 06:08:00,
2013-03-10 00:12:00,54.3,37.5,30.04,SSW,193,2.3,0.0,53,0.00,CLR,,0.00,WeatherDisplay:10.37,2013-03-10 06:12:00,
2013-03-10 00:13:00,54.3,37.5,30.04,South,187,3.0,3.0,53,0.00,CLR,,0.00,WeatherDisplay:10.37,2013-03-10 06:13:00,
2013-03-10 00:17:00,54.7,37.4,30.04,South,183,3.5,3.5,52,0.00,CLR,,0.00,WeatherDisplay:10.37,2013-03-10 06:17:00,
2013-03-10 00:18:00,54.8,37.5,30.04,South,183,2.3,2.3,52,0.00,CLR,,0.00,WeatherDisplay:10.37,2013-03-10 06:18:00,
2013-03-10 00:22:00,55.0,37.7,30.04,South,170,2.3,2.3,52,0.00,CLR,,0.00,WeatherDisplay:10.37,2013-03-10 06:22:00,
2013-03-10 00:23:00,55.0,37.7,30.04,South,170,3.5,3.5,52,0.00,CLR,,0.00,WeatherDisplay:10.37,2013-03-10 06:23:00,
2013-03-10 00:27:00,55.2,36.9,30.03,SSE,159,3.5,3.5,50,0.00,CLR,,0.00,WeatherDisplay:10.37,2013-03-10 06:27:00,
2013-03-10 00:28:00,55.3,37.0,30.03,SSE,159,3.5,3.5,50,0.00,CLR,,0.00,WeatherDisplay:10.37,2013-03-10 06:28:00,
2013-03-10 00:32:00,55.5,37.1,30.03,SSE,159,4.0,4.0,50,0.00,CLR,,0.00,WeatherDisplay:10.37,2013-03-10 06:32:00,
2013-03-10 00:33:00,55.5,37.1,30.03,SSE,162,2.3,2.3,50,0.00,CLR,,0.00,WeatherDisplay:10.37,2013-03-10 06:33:00,
2013-03-10 00:34:00,55.5,37.1,30.03,SSW,192,3.5,3.5,50,0.00,CLR,,0.00,WeatherDisplay:10.37,2013-03-10 06:34:00,
2013-03-10 00:38:00,55.8,36.9,30.03,SSE,164,7.0,7.0,49,0.00,CLR,,0.00,WeatherDisplay:10.37,2013-03-10 06:38:00,
2013-03-10 00:39:00,55.9,36.5,30.03,SSW,198,8.1,8.1,48,0.00,CLR,,0.00,WeatherDisplay:10.37,2013-03-10 06:39:00,
2013-03-10 00:43:00,56.3,36.8,30.03,SSE,166,5.0,5.0,48,0.00,CLR,,0.00,WeatherDisplay:10.37,2013-03-10 06:43:00,
2013-03-10 00:44:00,56.3,36.8,30.03,SSW,202,5.8,5.8,48,0.00,CLR,,0.00,WeatherDisplay:10.37,2013-03-10 06:44:00,
2013-03-10 00:48:00,56.5,36.5,30.02,South,189,6.9,6.9,47,0.00,CLR,,0.00,WeatherDisplay:10.37,2013-03-10 06:48:00,
2013-03-10 00:49:00,56.6,37.1,30.02,South,182,5.8,5.8,48,0.00,CLR,,0.00,WeatherDisplay:10.37,2013-03-10 06:49:00,
2013-03-10 00:53:00,56.7,36.7,30.02,SSW,203,6.9,6.9,47,0.00,CLR,,0.00,WeatherDisplay:10.37,2013-03-10 06:53:00,
2013-03-10 00:54:00,56.8,36.8,30.02,South,181,3.5,3.5,47,0.00,CLR,,0.00,WeatherDisplay:10.37,2013-03-10 06:54:00,
2013-03-10 00:58:00,56.8,36.2,30.02,South,183,8.1,8.1,46,0.00,CLR,,0.00,WeatherDisplay:10.37,2013-03-10 06:58:00,
2013-03-10 00:59:00,56.8,36.8,30.02,South,183,4.6,4.6,47,0.00,CLR,,0.00,WeatherDisplay:10.37,2013-03-10 06:59:00,
2013-03-10 01:03:00,56.6,36.6,30.01,South,191,3.5,3.5,47,0.00,CLR,,0.00,WeatherDisplay:10.37,2013-03-10 07:03:00,
2013-03-10 01:04:00,56.6,36.6,30.01,South,191,4.6,4.6,47,0.00,CLR,,0.00,WeatherDisplay:10.37,2013-03-10 07:04:00,
2013-03-10 01:09:00,56.4,36.4,30.01,South,185,4.6,4.6,47,0.00,CLR,,0.00,WeatherDisplay:10.37,2013-03-10 07:09:00,
2013-03-10 01:14:00,56.3,36.3,30.01,SSE,161,3.0,3.0,47,0.00,CLR,,0.00,WeatherDisplay:10.37,2013-03-10 07:14:00,
2013-03-10 01:15:00,56.3,36.3,30.01,SSE,161,3.5,3.5,47,0.00,CLR,,0.00,WeatherDisplay:10.37,2013-03-10 07:15:00,
2013-03-10 01:19:00,56.3,36.8,30.01,South,185,2.3,2.3,48,0.00,CLR,,0.00,WeatherDisplay:10.37,2013-03-10 07:19:00,
2013-03-10 01:20:00,56.2,36.8,30.01,SSW,197,3.5,3.5,48,0.00,CLR,,0.00,WeatherDisplay:10.37,2013-03-10 07:20:00,
2013-03-10 01:24:00,56.2,36.2,30.01,SSE,166,5.0,5.0,47,0.00,CLR,,0.00,WeatherDisplay:10.37,2013-03-10 07:24:00,
2013-03-10 01:25:00,56.2,36.8,30.01,SSE,161,4.6,4.6,48,0.00,CLR,,0.00,WeatherDisplay:10.37,2013-03-10 07:25:00,
2013-03-10 01:29:00,56.1,36.7,30.01,South,181,5.0,5.0,48,0.00,CLR,,0.00,WeatherDisplay:10.37,2013-03-10 07:29:00,
2013-03-10 01:30:00,56.1,36.7,30.01,SSE,162,4.0,4.0,48,0.00,CLR,,0.00,WeatherDisplay:10.37,2013-03-10 07:30:00,
2013-03-10 01:35:00,56.1,36.7,30.02,South,184,3.5,3.5,48,0.00,CLR,,0.00,WeatherDisplay:10.37,2013-03-10 07:35:00,
2013-03-10 01:40:00,56.2,36.8,30.02,South,169,3.5,3.5,48,0.00,CLR,,0.00,WeatherDisplay:10.37,2013-03-10 07:40:00,
2013-03-10 01:45:00,56.1,36.7,30.02,SSE,158,4.6,4.6,48,0.00,CLR,,0.00,WeatherDisplay:10.37,2013-03-10 07:45:00,
2013-03-10 01:46:00,56.1,36.7,30.01,South,178,3.5,3.5,48,0.00,CLR,,0.00,WeatherDisplay:10.37,2013-03-10 07:46:00,
2013-03-10 01:50:00,56.1,36.7,30.02,SSE,162,5.0,5.0,48,0.00,CLR,,0.00,WeatherDisplay:10.37,2013-03-10 07:50:00,
2013-03-10 01:51:00,56.1,36.7,30.01,South,174,4.6,4.6,48,0.00,CLR,,0.00,WeatherDisplay:10.37,2013-03-10 07:51:00,
2013-03-10 01:55:00,56.1,36.1,30.01,SSW,193,6.9,6.9,47,0.00,CLR,,0.00,WeatherDisplay:10.37,2013-03-10 07:55:00,
2013-03-10 01:56:00,56.2,36.2,30.01,SSW,203,6.9,6.9,47,0.00,CLR,,0.00,WeatherDisplay:10.37,2013-03-10 07:56:00,
2013-03-10 03:00:00,56.3,36.3,30.00,SSE,157,9.0,9.0,47,0.00,CLR,,0.00,WeatherDisplay:10.37,2013-03-10 08:00:00,
2013-03-10 03:01:00,56.4,36.4,30.00,South,190,9.2,9.2,47,0.00,CLR,,0.00,WeatherDisplay:10.37,2013-03-10 08:01:00,
2013-03-10 03:05:00,56.7,36.1,30.00,South,173,6.9,6.9,46,0.00,CLR,,0.00,WeatherDisplay:10.37,2013-03-10 08:05:00,
2013-03-10 03:06:00,56.8,36.2,30.00,SSE,167,9.2,9.2,46,0.00,CLR,,0.00,WeatherDisplay:10.37,2013-03-10 08:06:00,
2013-03-10 03:10:00,57.0,36.4,30.00,South,173,5.8,5.8,46,0.00,CLR,,0.00,WeatherDisplay:10.37,2013-03-10 08:10:00,
2013-03-10 03:11:00,57.0,35.9,30.00,SSE,153,5.8,5.8,45,0.00,CLR,,0.00,WeatherDisplay:10.37,2013-03-10 08:11:00,
2013-03-10 03:15:00,57.2,36.0,29.99,SSE,155,8.1,8.1,45,0.00,CLR,,0.00,WeatherDisplay:10.37,2013-03-10 08:15:00,
2013-03-10 03:16:00,57.2,36.0,30.00,South,191,7.0,7.0,45,0.00,CLR,,0.00,WeatherDisplay:10.37,2013-03-10 08:16:00,
2013-03-10 03:20:00,57.3,36.1,30.00,SSE,166,4.6,4.6,45,0.00,CLR,,0.00,WeatherDisplay:10.37,2013-03-10 08:20:00,
2013-03-10 03:21:00,57.3,36.1,30.00,SSE,166,4.6,4.6,45,0.00,CLR,,0.00,WeatherDisplay:10.37,2013-03-10 08:21:00,
2013-03-10 03:22:00,57.3,36.1,30.00,SSW,193,4.6,4.6,45,0.00,CLR,,0.00,WeatherDisplay:10.37,2013-03-10 08:22:00,
2013-03-10 03:26:00,57.4,36.2,30.00,South,187,8.1,8.1,45,0.00,CLR,,0.00,WeatherDisplay:10.37,2013-03-10 08:26:00,
2013-03-10 03:27:00,57.4,36.2,30.00,SSE,164,5.8,5.8,45,0.00,CLR,,0.00,WeatherDisplay:10.37,2013-03-10 08:27:00,
2013-03-10 03:31:00,57.5,36.3,30.00,South,176,6.0,6.0,45,0.00,CLR,,0.00,WeatherDisplay:10.37,2013-03-10 08:31:00,
2013-03-10 03:32:00,57.5,36.3,30.00,SSE,164,6.9,6.9,45,0.00,CLR,,0.00,WeatherDisplay:10.37,2013-03-10 08:32:00,
2013-03-10 03:36:00,57.5,36.3,30.00,South,176,8.1,8.1,45,0.00,CLR,,0.00,WeatherDisplay:10.37,2013-03-10 08:36:00,
2013-03-10 03:37:00,57.5,36.3,30.00,South,176,4.6,4.6,45,0.00,CLR,,0.00,WeatherDisplay:10.37,2013-03-10 08:37:00,
2013-03-10 03:41:00,57.6,36.4,30.00,SSW,196,6.9,6.9,45,0.00,CLR,,0.00,WeatherDisplay:10.37,2013-03-10 08:41:00,
2013-03-10 03:42:00,57.6,36.4,30.00,South,189,5.8,5.8,45,0.00,CLR,,0.00,WeatherDisplay:10.37,2013-03-10 08:42:00,
2013-03-10 03:46:00,57.8,36.0,29.99,SSE,168,10.4,10.4,44,0.00,CLR,,0.00,WeatherDisplay:10.37,2013-03-10 08:46:00,
2013-03-10 03:47:00,57.8,36.0,30.00,SSE,147,5.8,5.8,44,0.00,CLR,,0.00,WeatherDisplay:10.37,2013-03-10 08:47:00,
2013-03-10 03:51:00,57.8,36.0,29.99,South,176,3.5,3.5,44,0.00,CLR,,0.00,WeatherDisplay:10.37,2013-03-10 08:51:00,
2013-03-10 03:52:00,57.7,35.9,29.99,South,180,3.5,3.5,44,0.00,CLR,,0.00,WeatherDisplay:10.37,2013-03-10 08:52:00,
2013-03-10 03:56:00,57.7,35.9,29.99,South,183,6.0,6.0,44,0.00,CLR,,0.00,WeatherDisplay:10.37,2013-03-10 08:56:00,
2013-03-10 03:57:00,57.7,35.9,29.99,South,176,6.9,6.9,44,0.00,CLR,,0.00,WeatherDisplay:10.37,2013-03-10 08:57:00,
2013-03-10 03:58:00,57.7,36.5,29.99,South,176,6.9,6.9,45,0.00,CLR,,0.00,WeatherDisplay:10.37,2013-03-10 08:58:00,
2013-03-10 04:02:00,57.7,36.5,29.98,SSE,165,5.8,5.8,45,0.00,CLR,,0.00,WeatherDisplay:10.37,2013-03-10 09:02:00,
2013-03-10 04:03:00,57.7,35.9,29.98,South,189,8.1,8.1,44,0.00,CLR,,0.00,WeatherDisplay:10.37,2013-03-10 09:03:00,
2013-03-10 04:07:00,57.8,36.0,29.98,SSE,162,3.5,3.5,44,0.00,CLR,,0.00,WeatherDisplay:10.37,2013-03-10 09:07:00,
2013-03-10 04:08:00,57.8,36.0,29.98,SSW,205,3.5,3.6,44,0.00,CLR,,0.00,WeatherDisplay:10.37,2013-03-10 09:08:00,
2013-03-10 04:12:00,57.9,36.1,29.99,South,185,5.8,5.8,44,0.00,CLR,,0.00,WeatherDisplay:10.37,2013-03-10 09:12:00,
2013-03-10 04:13:00,57.9,36.1,30.00,SSW,204,4.6,4.6,44,0.00,CLR,,0.00,WeatherDisplay:10.37,2013-03-10 09:13:00,
2013-03-10 04:14:00,57.9,36.1,30.00,SSE,168,4.6,4.6,44,0.00,CLR,,0.00,WeatherDisplay:10.37,2013-03-10 09:14:00,
2013-03-10 04:17:00,57.9,36.1,30.00,SSE,168,6.0,6.0,44,0.00,CLR,,0.00,WeatherDisplay:10.37,2013-03-10 09:17:00,
2013-03-10 04:18:00,57.9,36.1,30.00,SSE,164,5.8,5.8,44,0.00,CLR,,0.00,WeatherDisplay:10.37,2013-03-10 09:18:00,
2013-03-10 04:19:00,57.9,36.1,30.00,SSE,162,3.5,3.6,44,0.00,CLR,,0.00,WeatherDisplay:10.37,2013-03-10 09:19:00,
2013-03-10 04:22:00,57.9,36.1,30.00,SE,146,5.8,5.8,44,0.00,CLR,,0.00,WeatherDisplay:10.37,2013-03-10 09:22:00,
2013-03-10 04:23:00,57.8,36.0,30.00,SE,145,3.5,3.5,44,0.00,CLR,,0.00,WeatherDisplay:10.37,2013-03-10 09:23:00,
2013-03-10 04:25:00,57.8,36.0,30.00,South,189,6.9,6.9,44,0.00,CLR,,0.00,WeatherDisplay:10.37,2013-03-10 09:25:00,
2013-03-10 04:27:00,57.8,36.6,30.01,SSW,193,3.5,3.5,45,0.00,CLR,,0.00,WeatherDisplay:10.37,2013-03-10 09:27:00,
2013-03-10 04:28:00,57.8,36.6,30.00,SSW,193,3.5,3.5,45,0.00,CLR,,0.00,WeatherDisplay:10.37,2013-03-10 09:28:00,
2013-03-10 04:30:00,57.7,36.5,30.01,South,176,3.5,3.5,45,0.00,CLR,,0.00,WeatherDisplay:10.37,2013-03-10 09:30:00,
2013-03-10 04:32:00,57.7,36.5,30.00,South,181,4.0,4.0,45,0.00,CLR,,0.00,WeatherDisplay:10.37,2013-03-10 09:32:00,
2013-03-10 04:33:00,57.6,36.4,30.01,SSE,162,7.0,7.0,45,0.00,CLR,,0.00,WeatherDisplay:10.37,2013-03-10 09:33:00,
2013-03-10 04:35:00,57.6,36.4,30.01,SSE,168,6.9,6.9,45,0.00,CLR,,0.00,WeatherDisplay:10.37,2013-03-10 09:35:00,
2013-03-10 04:37:00,57.6,36.4,30.00,South,189,6.9,6.9,45,0.00,CLR,,0.00,WeatherDisplay:10.37,2013-03-10 09:37:00,
2013-03-10 04:39:00,57.6,36.4,30.00,SSE,160,5.8,5.8,45,0.00,CLR,,0.00,WeatherDisplay:10.37,2013-03-10 09:39:00,
2013-03-10 04:40:00,57.6,36.4,30.00,South,180,10.4,10.4,45,0.00,CLR,,0.00,WeatherDisplay:10.37,2013-03-10 09:40:00,
2013-03-10 04:43:00,57.7,36.5,30.00,SSE,165,8.1,8.1,45,0.00,CLR,,0.00,WeatherDisplay:10.37,2013-03-10 09:43:00,
2013-03-10 04:44:00,57.8,36.0,30.00,SSE,157,8.1,8.1,44,0.00,CLR,,0.00,WeatherDisplay:10.37,2013-03-10 09:44:00,
2013-03-10 04:46:00,57.8,36.6,30.01,SSW,203,9.2,9.2,45,0.00,CLR,,0.00,WeatherDisplay:10.37,2013-03-10 09:46:00,
2013-03-10 04:48:00,57.9,36.1,30.01,South,183,8.1,8.1,44,0.00,CLR,,0.00,WeatherDisplay:10.37,2013-03-10 09:48:00,
2013-03-10 04:49:00,57.9,36.7,30.01,SSE,159,10.4,10.4,45,0.00,CLR,,0.00,WeatherDisplay:10.37,2013-03-10 09:49:00,
2013-03-10 04:51:00,58.0,36.2,30.01,South,187,4.6,4.6,44,0.00,CLR,,0.00,WeatherDisplay:10.37,2013-03-10 09:51:00,
2013-03-10 04:53:00,58.0,36.8,30.01,South,187,5.8,5.8,45,0.00,CLR,,0.00,WeatherDisplay:10.37,2013-03-10 09:53:00,
2013-03-10 04:54:00,58.0,36.8,30.01,SSW,196,6.9,6.9,45,0.00,CLR,,0.00,WeatherDisplay:10.37,2013-03-10 09:54:00,
2013-03-10 04:56:00,57.9,36.7,30.01,SSW,197,6.9,6.9,45,0.00,CLR,,0.00,WeatherDisplay:10.37,2013-03-10 09:56:00,
2013-03-10 04:58:00,57.9,36.7,30.01,South,172,8.1,8.1,45,0.00,CLR,,0.00,WeatherDisplay:10.37,2013-03-10 09:58:00,
2013-03-10 04:59:00,57.8,36.6,30.01,South,185,6.9,6.9,45,0.00,CLR,,0.00,WeatherDisplay:10.37,2013-03-10 09:59:00,
2013-03-10 05:01:00,57.8,36.6,30.01,South,177,5.8,5.8,45,0.00,CLR,,0.00,WeatherDisplay:10.37,2013-03-10 10:01:00,
2013-03-10 05:03:00,57.8,36.6,30.01,South,181,5.8,5.8,45,0.00,CLR,,0.00,WeatherDisplay:10.37,2013-03-10 10:03:00,
2013-03-10 05:04:00,57.8,36.6,30.01,South,177,3.5,3.5,45,0.00,CLR,,0.00,WeatherDisplay:10.37,2013-03-10 10:04:00,
2013-03-10 05:06:00,57.8,36.6,30.01,South,174,5.8,5.8,45,0.00,CLR,,0.00,WeatherDisplay:10.37,2013-03-10 10:06:00,
2013-03-10 05:08:00,57.8,36.6,30.01,South,190,10.4,10.4,45,0.00,CLR,,0.00,WeatherDisplay:10.37,2013-03-10 10:08:00,
2013-03-10 05:09:00,57.8,36.6,30.01,SSW,201,4.6,4.6,45,0.00,CLR,,0.00,WeatherDisplay:10.37,2013-03-10 10:09:00,
2013-03-10 05:10:00,57.8,36.6,30.01,SSE,164,4.6,4.6,45,0.00,CLR,,0.00,WeatherDisplay:10.37,2013-03-10 10:10:00,
2013-03-10 05:11:00,57.7,36.5,30.00,South,180,5.0,5.0,45,0.00,CLR,,0.00,WeatherDisplay:10.37,2013-03-10 10:11:00,
2013-03-10 05:13:00,57.7,36.5,30.00,SSE,166,10.4,10.4,45,0.00,CLR,,0.00,WeatherDisplay:10.37,2013-03-10 10:13:00,
2013-03-10 05:14:00,57.7,36.5,30.00,SSW,195,9.2,9.2,45,0.00,CLR,,0.00,WeatherDisplay:10.37,2013-03-10 10:14:00,
2013-03-10 05:15:00,57.7,36.5,30.01,SSE,162,9.2,9.2,45,0.00,CLR,,0.00,WeatherDisplay:10.37,2013-03-10 10:15:00,
2013-03-10 05:16:00,57.7,36.5,30.00,SSW,193,4.6,4.6,45,0.00,CLR,,0.00,WeatherDisplay:10.37,2013-03-10 10:16:00,
2013-03-10 05:18:00,57.7,36.5,30.00,South,185,8.1,8.1,45,0.00,CLR,,0.00,WeatherDisplay:10.37,2013-03-10 10:18:00,
2013-03-10 05:20:00,57.6,36.4,30.01,South,182,5.8,5.8,45,0.00,CLR,,0.00,WeatherDisplay:10.37,2013-03-10 10:20:00,
2013-03-10 05:22:00,57.6,36.4,30.01,South,187,6.0,6.0,45,0.00,CLR,,0.00,WeatherDisplay:10.37,2013-03-10 10:22:00,
2013-03-10 05:24:00,57.6,36.4,30.01,South,178,6.9,6.9,45,0.00,CLR,,0.00,WeatherDisplay:10.37,2013-03-10 10:24:00,
2013-03-10 05:25:00,57.6,36.4,30.01,South,184,8.1,8.1,45,0.00,CLR,,0.00,WeatherDisplay:10.37,2013-03-10 10:25:00,
2013-03-10 05:26:00,57.6,36.4,30.01,SSE,166,4.6,4.6,45,0.00,CLR,,0.00,WeatherDisplay:10.37,2013-03-10 10:26:00,
2013-03-10 05:27:00,57.6,36.4,30.01,South,182,5.8,5.8,45,0.00,CLR,,0.00,WeatherDisplay:10.37,2013-03-10 10:27:00,
2013-03-10 05:29:00,57.5,36.9,30.01,South,185,5.0,5.0,46,0.00,CLR,,0.00,WeatherDisplay:10.37,2013-03-10 10:29:00,
2013-03-10 05:30:00,57.5,36.9,30.01,South,180,4.6,4.6,46,0.00,CLR,,0.00,WeatherDisplay:10.37,2013-03-10 10:30:00,
2013-03-10 05:31:00,57.5,36.9,30.01,South,190,3.5,3.5,46,0.00,CLR,,0.00,WeatherDisplay:10.37,2013-03-10 10:31:00,
2013-03-10 05:32:00,57.5,36.9,30.01,South,181,4.0,4.0,46,0.00,CLR,,0.00,WeatherDisplay:10.37,2013-03-10 10:32:00,
2013-03-10 05:34:00,57.4,36.8,30.02,SSE,163,5.8,5.8,46,0.00,CLR,,0.00,WeatherDisplay:10.37,2013-03-10 10:34:00,
2013-03-10 05:35:00,57.4,36.8,30.02,South,184,2.3,2.3,46,0.00,CLR,,0.00,WeatherDisplay:10.37,2013-03-10 10:35:00,
2013-03-10 05:36:00,57.4,36.8,30.02,SSW,195,3.5,3.5,46,0.00,CLR,,0.00,WeatherDisplay:10.37,2013-03-10 10:36:00,
2013-03-10 05:37:00,57.3,36.7,30.02,South,169,3.5,3.5,46,0.00,CLR,,0.00,WeatherDisplay:10.37,2013-03-10 10:37:00,
2013-03-10 05:39:00,57.3,36.7,30.01,SSW,192,3.5,3.5,46,0.00,CLR,,0.00,WeatherDisplay:10.37,2013-03-10 10:39:00,
2013-03-10 05:40:00,57.3,36.7,30.02,SSE,164,3.5,3.5,46,0.00,CLR,,0.00,WeatherDisplay:10.37,2013-03-10 10:40:00,
2013-03-10 05:41:00,57.3,36.7,30.01,South,183,4.0,4.0,46,0.00,CLR,,0.00,WeatherDisplay:10.37,2013-03-10 10:41:00,
2013-03-10 05:43:00,57.2,36.6,30.02,South,174,4.6,4.6,46,0.00,CLR,,0.00,WeatherDisplay:10.37,2013-03-10 10:43:00,
2013-03-10 05:44:00,57.3,36.7,30.02,South,174,2.3,2.3,46,0.00,CLR,,0.00,WeatherDisplay:10.37,2013-03-10 10:44:00,
2013-03-10 05:45:00,57.2,37.1,30.02,South,174,2.3,2.3,47,0.00,CLR,,0.00,WeatherDisplay:10.37,2013-03-10 10:45:00,
2013-03-10 05:46:00,57.1,36.5,30.01,South,174,2.3,2.3,46,0.00,CLR,,0.00,WeatherDisplay:10.37,2013-03-10 10:46:00,
2013-03-10 05:48:00,57.1,36.5,30.01,South,190,3.5,3.5,46,0.00,CLR,,0.00,WeatherDisplay:10.37,2013-03-10 10:48:00,
2013-03-10 05:49:00,57.1,36.5,30.01,South,183,3.5,3.5,46,0.00,CLR,,0.00,WeatherDisplay:10.37,2013-03-10 10:49:00,
2013-03-10 05:50:00,57.0,36.4,30.01,SSE,162,3.5,3.5,46,0.00,CLR,,0.00,WeatherDisplay:10.37,2013-03-10 10:50:00,
2013-03-10 05:52:00,57.0,37.0,30.02,SSW,194,3.5,3.5,47,0.00,CLR,,0.00,WeatherDisplay:10.37,2013-03-10 10:52:00,
2013-03-10 05:53:00,57.0,37.0,30.02,SSW,195,3.5,3.5,47,0.00,CLR,,0.00,WeatherDisplay:10.37,2013-03-10 10:53:00,
2013-03-10 05:54:00,57.0,37.0,30.02,South,189,3.5,3.5,47,0.00,CLR,,0.00,WeatherDisplay:10.37,2013-03-10 10:54:00,
2013-03-10 05:56:00,57.1,36.5,30.02,South,181,5.8,5.8,46,0.00,CLR,,0.00,WeatherDisplay:10.37,2013-03-10 10:56:00,
2013-03-10 05:57:00,57.1,36.5,30.02,SSW,193,5.0,5.0,46,0.00,CLR,,0.00,WeatherDisplay:10.37,2013-03-10 10:57:00,
2013-03-10 05:59:00,57.2,36.6,30.02,South,185,4.6,4.6,46,0.00,CLR,,0.00,WeatherDisplay:10.37,2013-03-10 10:59:00,
2013-03-10 06:01:00,57.2,36.6,30.01,SW,214,4.6,4.6,46,0.00,CLR,,0.00,WeatherDisplay:10.37,2013-03-10 11:01:00,
2013-03-10 06:02:00,57.2,36.6,30.01,South,188,4.6,4.6,46,0.00,CLR,,0.00,WeatherDisplay:10.37,2013-03-10 11:02:00,
2013-03-10 06:04:00,57.2,36.6,30.01,SSE,166,3.5,3.5,46,0.00,CLR,,0.00,WeatherDisplay:10.37,2013-03-10 11:04:00,
2013-03-10 06:05:00,57.2,36.6,30.01,South,173,3.5,3.5,46,0.00,CLR,,0.00,WeatherDisplay:10.37,2013-03-10 11:05:00,
2013-03-10 06:06:00,57.2,36.6,30.01,South,187,5.0,5.0,46,0.00,CLR,,0.00,WeatherDisplay:10.37,2013-03-10 11:06:00,
2013-03-10 06:07:00,57.2,36.6,30.01,South,183,4.6,4.6,46,0.00,CLR,,0.00,WeatherDisplay:10.37,2013-03-10 11:07:00,
2013-03-10 06:09:00,57.2,36.6,30.01,South,173,4.6,4.6,46,0.00,CLR,,0.00,WeatherDisplay:10.37,2013-03-10 11:09:00,
2013-03-10 06:10:00,57.2,36.6,30.01,South,184,4.6,4.6,46,0.00,CLR,,0.00,WeatherDisplay:10.37,2013-03-10 11:10:00,
2013-03-10 06:11:00,57.1,36.5,30.01,South,184,2.3,2.3,46,0.00,CLR,,0.00,WeatherDisplay:10.37,2013-03-10 11:11:00,
2013-03-10 06:12:00,57.1,37.0,30.01,South,185,3.5,3.5,47,0.00,CLR,,0.00,WeatherDisplay:10.37,2013-03-10 11:12:00,
2013-03-10 06:14:00,57.1,36.5,30.01,SW,216,5.8,5.8,46,0.00,CLR,,0.00,WeatherDisplay:10.37,2013-03-10 11:14:00,
2013-03-10 06:15:00,57.1,36.5,30.01,South,170,5.8,5.8,46,0.00,CLR,,0.00,WeatherDisplay:10.37,2013-03-10 11:15:00,
2013-03-10 06:16:00,57.1,36.5,30.01,SSW,197,3.5,3.5,46,0.00,CLR,,0.00,WeatherDisplay:10.37,2013-03-10 11:16:00,
2013-03-10 06:17:00,57.1,36.5,30.01,SSE,168,3.5,3.5,46,0.00,CLR,,0.00,WeatherDisplay:10.37,2013-03-10 11:17:00,
2013-03-10 06:19:00,57.1,36.5,30.01,SSW,197,3.5,3.5,46,0.00,CLR,,0.00,WeatherDisplay:10.37,2013-03-10 11:19:00,
2013-03-10 06:20:00,57.1,36.5,30.01,South,186,4.6,4.6,46,0.00,CLR,,0.00,WeatherDisplay:10.37,2013-03-10 11:20:00,
2013-03-10 06:21:00,57.1,36.5,30.01,SSW,205,4.6,4.6,46,0.00,CLR,,0.00,WeatherDisplay:10.37,2013-03-10 11:21:00,
2013-03-10 06:22:00,57.1,36.5,30.01,South,187,4.0,4.0,46,0.00,CLR,,0.00,WeatherDisplay:10.37,2013-03-10 11:22:00,
2013-03-10 06:24:00,57.1,36.5,30.01,South,183,3.5,3.5,46,0.00,CLR,,0.00,WeatherDisplay:10.37,2013-03-10 11:24:00,
2013-03-10 06:25:00,57.1,36.5,30.01,South,189,2.3,2.3,46,0.00,CLR,,0.00,WeatherDisplay:10.37,2013-03-10 11:25:00,
2013-03-10 06:27:00,57.1,36.5,30.01,South,176,3.5,3.5,46,0.00,CLR,,0.00,WeatherDisplay:10.37,2013-03-10 11:27:00,
2013-03-10 06:29:00,57.0,36.4,30.01,South,190,3.5,3.5,46,0.00,CLR,,0.00,WeatherDisplay:10.37,2013-03-10 11:29:00,
2013-03-10 06:30:00,57.0,36.4,30.01,South,183,4.6,4.6,46,0.00,CLR,,0.00,WeatherDisplay:10.37,2013-03-10 11:30:00,
2013-03-10 06:32:00,57.0,36.4,30.01,South,182,4.0,4.0,46,0.00,CLR,,0.00,WeatherDisplay:10.37,2013-03-10 11:32:00,
2013-03-10 06:34:00,57.0,37.0,30.01,SSE,150,3.5,3.5,47,0.00,CLR,,0.00,WeatherDisplay:10.37,2013-03-10 11:34:00,
2013-03-10 06:36:00,56.9,36.9,30.01,South,174,3.5,3.5,47,0.00,CLR,,0.00,WeatherDisplay:10.37,2013-03-10 11:36:00,
2013-03-10 06:37:00,56.9,36.9,30.01,SSE,157,3.5,3.5,47,0.00,CLR,,0.00,WeatherDisplay:10.37,2013-03-10 11:37:00,
2013-03-10 06:39:00,56.8,36.8,30.01,South,187,3.5,3.5,47,0.00,CLR,,0.00,WeatherDisplay:10.37,2013-03-10 11:39:00,
2013-03-10 06:41:00,56.8,36.8,30.01,South,187,3.5,3.5,47,0.00,CLR,,0.00,WeatherDisplay:10.37,2013-03-10 11:41:00,
2013-03-10 06:42:00,56.8,36.8,30.01,South,187,3.5,3.5,47,0.00,CLR,,0.00,WeatherDisplay:10.37,2013-03-10 11:42:00,
2013-03-10 06:43:00,56.7,36.7,30.01,SSW,199,3.5,3.5,47,0.00,CLR,,0.00,WeatherDisplay:10.37,2013-03-10 11:43:00,
2013-03-10 06:45:00,56.7,36.7,30.01,SSW,193,3.5,3.5,47,0.00,CLR,,0.00,WeatherDisplay:10.37,2013-03-10 11:45:00,
2013-03-10 06:46:00,56.7,36.7,30.01,SSW,194,4.6,4.6,47,0.00,CLR,,0.00,WeatherDisplay:10.37,2013-03-10 11:46:00,
2013-03-10 06:47:00,56.7,36.7,30.01,South,178,4.6,4.6,47,0.00,CLR,,0.00,WeatherDisplay:10.37,2013-03-10 11:47:00,
2013-03-10 06:48:00,56.7,36.7,30.01,SSE,162,5.0,5.0,47,0.00,CLR,,0.00,WeatherDisplay:10.37,2013-03-10 11:48:00,
2013-03-10 06:50:00,56.7,36.7,30.01,SSE,156,3.5,3.5,47,0.00,CLR,,0.00,WeatherDisplay:10.37,2013-03-10 11:50:00,
2013-03-10 06:51:00,56.8,36.8,30.01,South,179,3.5,3.5,47,0.00,CLR,,0.00,WeatherDisplay:10.37,2013-03-10 11:51:00,
2013-03-10 06:52:00,56.8,36.8,30.01,South,181,3.5,3.5,47,0.00,CLR,,0.00,WeatherDisplay:10.37,2013-03-10 11:52:00,
2013-03-10 06:53:00,56.8,36.8,30.01,South,187,5.0,5.0,47,0.00,CLR,,0.00,WeatherDisplay:10.37,2013-03-10 11:53:00,
2013-03-10 06:55:00,56.8,36.8,30.01,South,177,3.5,3.5,47,0.00,CLR,,0.00,WeatherDisplay:10.37,2013-03-10 11:55:00,
2013-03-10 06:56:00,56.8,36.8,30.01,SSW,197,4.6,4.6,47,0.00,CLR,,0.00,WeatherDisplay:10.37,2013-03-10 11:56:00,
2013-03-10 06:58:00,56.8,36.8,30.01,South,184,3.5,3.5,47,0.00,CLR,,0.00,WeatherDisplay:10.37,2013-03-10 11:58:00,
2013-03-10 07:00:00,56.8,36.8,30.01,SSW,209,5.0,5.0,47,0.00,CLR,,0.00,WeatherDisplay:10.37,2013-03-10 12:00:00,
2013-03-10 07:01:00,56.8,36.8,30.01,South,185,5.8,5.8,47,0.00,CLR,,0.00,WeatherDisplay:10.37,2013-03-10 12:01:00,
2013-03-10 07:03:00,56.7,36.7,30.01,South,173,4.6,4.6,47,0.00,CLR,,0.00,WeatherDisplay:10.37,2013-03-10 12:03:00,
2013-03-10 07:06:00,56.6,36.6,30.01,SSW,196,3.5,3.5,47,0.00,CLR,,0.00,WeatherDisplay:10.37,2013-03-10 12:06:00,
2013-03-10 07:08:00,56.6,36.6,30.01,SW,214,3.5,3.5,47,0.00,CLR,,0.00,WeatherDisplay:10.37,2013-03-10 12:08:00,
2013-03-10 07:09:00,56.5,36.5,30.01,SSW,194,5.0,5.0,47,0.00,CLR,,0.00,WeatherDisplay:10.37,2013-03-10 12:09:00,
2013-03-10 07:11:00,56.6,36.6,30.01,SSW,193,4.6,4.6,47,0.00,CLR,,0.00,WeatherDisplay:10.37,2013-03-10 12:11:00,
2013-03-10 07:13:00,56.5,37.0,30.01,South,189,3.5,3.5,48,0.00,CLR,,0.00,WeatherDisplay:10.37,2013-03-10 12:13:00,
2013-03-10 07:14:00,56.5,37.0,30.01,SSW,195,3.0,3.0,48,0.00,CLR,,0.00,WeatherDisplay:10.37,2013-03-10 12:14:00,
2013-03-10 07:16:00,56.4,36.9,30.01,South,176,2.3,2.3,48,0.00,CLR,,0.00,WeatherDisplay:10.37,2013-03-10 12:16:00,
2013-03-10 07:18:00,56.3,36.8,30.01,South,180,3.5,3.5,48,0.00,CLR,,0.00,WeatherDisplay:10.37,2013-03-10 12:18:00,
2013-03-10 07:19:00,56.3,36.8,30.01,South,174,3.5,3.5,48,0.00,CLR,,0.00,WeatherDisplay:10.37,2013-03-10 12:19:00,
2013-03-10 07:21:00,56.2,36.8,30.01,SSE,166,3.5,3.5,48,0.00,CLR,,0.00,WeatherDisplay:10.37,2013-03-10 12:21:00,
2013-03-10 07:23:00,56.1,36.7,30.01,South,180,3.5,3.5,48,0.00,CLR,,0.00,WeatherDisplay:10.37,2013-03-10 12:23:00,
2013-03-10 07:24:00,56.1,37.2,30.01,South,180,3.5,3.5,49,0.00,CLR,,0.00,WeatherDisplay:10.37,2013-03-10 12:24:00,
2013-03-10 07:26:00,56.0,36.6,30.00,SSE,168,3.5,3.5,48,0.00,CLR,,0.00,WeatherDisplay:10.37,2013-03-10 12:26:00,
2013-03-10 07:27:00,56.0,36.6,30.00,SSE,168,4.6,4.6,48,0.00,CLR,,0.00,WeatherDisplay:10.37,2013-03-10 12:27:00,
2013-03-10 07:29:00,55.9,36.5,30.00,South,185,3.5,3.5,48,0.00,CLR,,0.00,WeatherDisplay:10.37,2013-03-10 12:29:00,
2013-03-10 07:32:00,56.0,36.6,30.00,SSE,162,3.5,3.5,48,0.00,CLR,,0.00,WeatherDisplay:10.37,2013-03-10 12:32:00,
2013-03-10 07:34:00,56.0,37.1,30.00,South,183,3.5,3.5,49,0.00,CLR,,0.00,WeatherDisplay:10.37,2013-03-10 12:34:00,
2013-03-10 07:37:00,56.1,37.2,30.00,South,170,5.8,5.8,49,0.00,CLR,,0.00,WeatherDisplay:10.37,2013-03-10 12:37:00,
2013-03-10 07:39:00,56.2,36.8,30.00,SSW,193,3.5,3.5,48,0.00,CLR,,0.00,WeatherDisplay:10.37,2013-03-10 12:39:00,
2013-03-10 07:42:00,56.3,37.4,30.00,South,188,3.5,3.5,49,0.00,CLR,,0.00,WeatherDisplay:10.37,2013-03-10 12:42:00,
2013-03-10 07:43:00,56.3,36.8,30.00,SSE,163,4.6,4.6,48,0.00,CLR,,0.00,WeatherDisplay:10.37,2013-03-10 12:43:00,
2013-03-10 07:44:00,56.4,36.9,30.00,South,176,4.6,4.6,48,0.00,CLR,,0.00,WeatherDisplay:10.37,2013-03-10 12:44:00,
2013-03-10 07:47:00,56.6,37.1,30.00,South,185,3.5,3.5,48,0.00,CLR,,0.00,WeatherDisplay:10.37,2013-03-10 12:47:00,
2013-03-10 07:48:00,56.7,37.2,30.00,SSE,159,3.5,3.5,48,0.00,CLR,,0.00,WeatherDisplay:10.37,2013-03-10 12:48:00,
2013-03-10 07:49:00,56.8,36.8,30.01,SSE,161,4.6,4.6,47,0.00,CLR,,0.00,WeatherDisplay:10.37,2013-03-10 12:49:00,
2013-03-10 07:52:00,56.8,36.8,30.00,SSE,167,6.9,6.9,47,0.00,CLR,,0.00,WeatherDisplay:10.37,2013-03-10 12:52:00,
2013-03-10 07:53:00,56.9,36.9,30.00,SSE,153,5.0,5.0,47,0.00,CLR,,0.00,WeatherDisplay:10.37,2013-03-10 12:53:00,
2013-03-10 07:54:00,57.0,37.0,30.00,SSE,151,6.9,6.9,47,0.00,CLR,,0.00,WeatherDisplay:10.37,2013-03-10 12:54:00,
2013-03-10 07:57:00,57.3,37.2,30.00,SE,141,5.8,5.8,47,0.00,CLR,,0.00,WeatherDisplay:10.37,2013-03-10 12:57:00,
2013-03-10 07:58:00,57.4,36.8,30.00,SSE,158,6.9,6.9,46,0.00,CLR,,0.00,WeatherDisplay:10.37,2013-03-10 12:58:00,
2013-03-10 07:59:00,57.5,36.9,30.01,South,187,5.8,5.8,46,0.00,CLR,,0.00,WeatherDisplay:10.37,2013-03-10 12:59:00,
2013-03-10 08:02:00,57.7,37.0,30.01,SSW,195,5.8,5.8,46,0.00,CLR,,0.00,WeatherDisplay:10.37,2013-03-10 13:02:00,
2013-03-10 08:03:00,57.8,36.6,30.01,South,191,5.8,5.8,45,0.00,CLR,,0.00,WeatherDisplay:10.37,2013-03-10 13:03:00,
2013-03-10 08:04:00,57.9,36.7,30.01,South,172,5.8,5.8,45,0.00,CLR,,0.00,WeatherDisplay:10.37,2013-03-10 13:04:00,
2013-03-10 08:05:00,57.9,36.7,30.01,South,171,5.8,5.8,45,0.00,CLR,,0.00,WeatherDisplay:10.37,2013-03-10 13:05:00,
2013-03-10 08:07:00,58.0,37.3,30.01,SSE,162,7.0,7.0,46,0.00,CLR,,0.00,WeatherDisplay:10.37,2013-03-10 13:07:00,
2013-03-10 08:09:00,58.0,36.8,30.02,SSE,149,6.9,6.9,45,0.00,CLR,,0.00,WeatherDisplay:10.37,2013-03-10 13:09:00,
2013-03-10 08:10:00,58.0,37.3,30.02,South,172,4.0,4.0,46,0.00,CLR,,0.00,WeatherDisplay:10.37,2013-03-10 13:10:00,
2013-03-10 08:12:00,58.0,36.8,30.02,SSE,153,6.0,6.0,45,0.00,CLR,,0.00,WeatherDisplay:10.37,2013-03-10 13:12:00,
2013-03-10 08:14:00,58.0,36.8,30.02,SSE,166,3.5,3.5,45,0.00,CLR,,0.00,WeatherDisplay:10.37,2013-03-10 13:14:00,
2013-03-10 08:15:00,58.0,36.8,30.01,South,174,5.8,5.8,45,0.00,CLR,,0.00,WeatherDisplay:10.37,2013-03-10 13:15:00,
2013-03-10 08:17:00,58.0,36.8,30.01,SSE,162,6.0,6.0,45,0.00,CLR,,0.00,WeatherDisplay:10.37,2013-03-10 13:17:00,
2013-03-10 08:19:00,58.0,36.8,30.01,SSE,161,5.8,5.8,45,0.00,CLR,,0.00,WeatherDisplay:10.37,2013-03-10 13:19:00,
2013-03-10 08:20:00,58.1,36.9,30.01,SSE,162,5.8,5.8,45,0.00,CLR,,0.00,WeatherDisplay:10.37,2013-03-10 13:20:00,
2013-03-10 08:22:00,58.1,36.3,30.00,South,178,6.0,6.0,44,0.00,CLR,,0.00,WeatherDisplay:10.37,2013-03-10 13:22:00,
2013-03-10 08:24:00,58.1,36.3,30.00,South,187,4.6,4.6,44,0.00,CLR,,0.00,WeatherDisplay:10.37,2013-03-10 13:24:00,
2013-03-10 08:25:00,58.1,36.3,30.00,South,180,6.9,6.9,44,0.00,CLR,,0.00,WeatherDisplay:10.37,2013-03-10 13:25:00,
2013-03-10 08:28:00,58.3,36.5,30.00,South,180,9.0,9.0,44,0.00,CLR,,0.00,WeatherDisplay:10.37,2013-03-10 13:28:00,
2013-03-10 08:29:00,58.4,36.0,30.00,SSE,158,9.2,9.2,43,0.00,CLR,,0.00,WeatherDisplay:10.37,2013-03-10 13:29:00,
2013-03-10 08:30:00,58.4,36.6,30.00,SSW,200,8.1,8.1,44,0.00,CLR,,0.00,WeatherDisplay:10.37,2013-03-10 13:30:00,
2013-03-10 08:33:00,58.5,37.2,30.00,South,191,7.0,7.0,45,0.00,CLR,,0.00,WeatherDisplay:10.37,2013-03-10 13:33:00,
2013-03-10 08:34:00,58.5,36.6,30.00,South,191,8.1,8.1,44,0.00,CLR,,0.00,WeatherDisplay:10.37,2013-03-10 13:34:00,
2013-03-10 08:35:00,58.6,36.7,30.00,SE,139,5.0,5.0,44,0.00,CLR,,0.00,WeatherDisplay:10.37,2013-03-10 13:35:00,
2013-03-10 08:38:00,58.6,36.7,30.00,SSW,197,4.6,4.6,44,0.00,CLR,,0.00,WeatherDisplay:10.37,2013-03-10 13:38:00,
2013-03-10 08:39:00,58.6,36.7,30.00,South,188,4.6,4.6,44,0.00,CLR,,0.00,WeatherDisplay:10.37,2013-03-10 13:39:00,
2013-03-10 08:40:00,58.7,36.8,30.00,SSW,192,4.6,4.6,44,0.00,CLR,,0.00,WeatherDisplay:10.37,2013-03-10 13:40:00,
2013-03-10 08:43:00,58.7,36.8,30.00,South,189,9.2,9.2,44,0.00,CLR,,0.00,WeatherDisplay:10.37,2013-03-10 13:43:00,
2013-03-10 08:45:00,58.8,36.9,30.00,SSE,164,3.5,3.5,44,0.00,CLR,,0.00,WeatherDisplay:10.37,2013-03-10 13:45:00,
2013-03-10 08:46:00,58.8,36.9,30.00,South,186,6.0,6.0,44,0.00,CLR,,0.00,WeatherDisplay:10.37,2013-03-10 13:46:00,
2013-03-10 08:48:00,58.9,37.0,30.00,South,187,4.0,4.0,44,0.00,CLR,,0.00,WeatherDisplay:10.37,2013-03-10 13:48:00,
2013-03-10 08:50:00,59.0,37.1,30.00,SSE,160,5.8,5.8,44,0.00,CLR,,0.00,WeatherDisplay:10.37,2013-03-10 13:50:00,
2013-03-10 08:51:00,59.1,37.2,30.00,SSW,193,5.8,5.8,44,0.00,CLR,,0.00,WeatherDisplay:10.37,2013-03-10 13:51:00,
2013-03-10 08:52:00,59.1,37.2,30.00,SSE,152,10.0,10.0,44,0.00,CLR,,0.00,WeatherDisplay:10.37,2013-03-10 13:52:00,
2013-03-10 08:53:00,59.2,36.7,30.00,SSW,193,10.4,10.4,43,0.00,CLR,,0.00,WeatherDisplay:10.37,2013-03-10 13:53:00,
2013-03-10 08:55:00,59.4,36.9,30.00,SSW,199,4.0,4.0,43,0.00,CLR,,0.00,WeatherDisplay:10.37,2013-03-10 13:55:00,
2013-03-10 08:56:00,59.5,37.0,30.00,SSE,158,4.6,4.6,43,0.00,CLR,,0.00,WeatherDisplay:10.37,2013-03-10 13:56:00,
2013-03-10 08:57:00,59.6,37.1,30.00,South,179,5.8,5.8,43,0.00,CLR,,0.00,WeatherDisplay:10.37,2013-03-10 13:57:00,
2013-03-10 08:58:00,59.6,37.6,30.00,SSW,200,6.9,6.9,44,0.00,CLR,,0.00,WeatherDisplay:10.37,2013-03-10 13:58:00,
2013-03-10 09:00:00,59.8,37.2,29.99,SE,126,6.0,6.0,43,0.00,CLR,,0.00,WeatherDisplay:10.37,2013-03-10 14:00:00,
2013-03-10 09:01:00,59.8,37.2,29.99,SE,141,7.0,7.0,43,0.00,CLR,,0.00,WeatherDisplay:10.37,2013-03-10 14:01:00,
2013-03-10 09:02:00,60.0,37.4,29.99,SSE,165,8.1,8.1,43,0.00,CLR,,0.00,WeatherDisplay:10.37,2013-03-10 14:02:00,
2013-03-10 09:03:00,60.0,37.4,29.99,South,178,8.1,8.1,43,0.00,CLR,,0.00,WeatherDisplay:10.37,2013-03-10 14:03:00,
2013-03-10 09:05:00,60.2,37.6,29.99,ESE,122,7.0,7.0,43,0.00,CLR,,0.00,WeatherDisplay:10.37,2013-03-10 14:05:00,
2013-03-10 09:06:00,60.3,37.1,29.99,SE,133,6.9,6.9,42,0.00,CLR,,0.00,WeatherDisplay:10.37,2013-03-10 14:06:00,
2013-03-10 09:08:00,60.3,37.1,29.99,South,186,6.9,6.9,42,0.00,CLR,,0.00,WeatherDisplay:10.37,2013-03-10 14:08:00,
2013-03-10 09:10:00,60.5,37.3,29.99,South,181,6.9,6.9,42,0.00,CLR,,0.00,WeatherDisplay:10.37,2013-03-10 14:10:00,
2013-03-10 09:11:00,60.5,37.3,29.99,South,179,6.9,6.9,42,0.00,CLR,,0.00,WeatherDisplay:10.37,2013-03-10 14:11:00,
2013-03-10 09:13:00,60.7,37.5,29.99,SW,217,8.1,8.1,42,0.00,CLR,,0.00,WeatherDisplay:10.37,2013-03-10 14:13:00,
2013-03-10 09:16:00,60.9,37.0,29.99,SSE,151,11.5,11.5,41,0.00,CLR,,0.00,WeatherDisplay:10.37,2013-03-10 14:16:00,
2013-03-10 09:18:00,61.1,37.2,29.99,South,181,8.1,8.1,41,0.00,CLR,,0.00,WeatherDisplay:10.37,2013-03-10 14:18:00,
2013-03-10 09:21:00,61.4,36.8,29.99,SE,140,10.4,10.4,40,0.00,CLR,,0.00,WeatherDisplay:10.37,2013-03-10 14:21:00,
2013-03-10 09:23:00,61.5,36.9,29.99,SSW,196,11.5,11.5,40,0.00,CLR,,0.00,WeatherDisplay:10.37,2013-03-10 14:23:00,
2013-03-10 09:26:00,61.4,37.5,29.99,South,187,11.0,11.0,41,0.00,CLR,,0.00,WeatherDisplay:10.37,2013-03-10 14:26:00,
2013-03-10 09:27:00,61.4,37.5,29.99,South,179,11.5,11.5,41,0.00,CLR,,0.00,WeatherDisplay:10.37,2013-03-10 14:27:00,
2013-03-10 09:28:00,61.4,37.5,29.99,South,189,11.5,11.5,41,0.00,CLR,,0.00,WeatherDisplay:10.37,2013-03-10 14:28:00,
2013-03-10 09:29:00,61.4,37.5,29.99,SE,146,11.5,11.5,41,0.00,CLR,,0.00,WeatherDisplay:10.37,2013-03-10 14:29:00,
2013-03-10 09:32:00,61.7,37.1,30.00,SSE,154,11.5,11.5,40,0.00,CLR,,0.00,WeatherDisplay:10.37,2013-03-10 14:32:00,
2013-03-10 09:33:00,61.8,37.2,30.00,SE,137,9.2,9.2,40,0.00,CLR,,0.00,WeatherDisplay:10.37,2013-03-10 14:33:00,
2013-03-10 09:34:00,61.8,37.2,30.00,South,174,6.9,6.9,40,0.00,CLR,,0.00,WeatherDisplay:10.37,2013-03-10 14:34:00,
2013-03-10 09:37:00,62.1,37.5,30.00,SSE,149,6.9,6.9,40,0.00,CLR,,0.00,WeatherDisplay:10.37,2013-03-10 14:37:00,
2013-03-10 09:38:00,62.2,37.6,30.00,SSW,193,11.5,11.5,40,0.00,CLR,,0.00,WeatherDisplay:10.37,2013-03-10 14:38:00,
2013-03-10 09:39:00,62.2,37.6,30.00,SSE,157,10.4,10.4,40,0.00,CLR,,0.00,WeatherDisplay:10.37,2013-03-10 14:39:00,
2013-03-10 09:42:00,62.3,38.3,30.00,South,191,6.0,6.0,41,0.00,CLR,,0.00,WeatherDisplay:10.37,2013-03-10 14:42:00,
2013-03-10 09:44:00,62.4,37.7,30.01,SSE,150,8.0,8.0,40,0.00,CLR,,0.00,WeatherDisplay:10.37,2013-03-10 14:44:00,
2013-03-10 09:47:00,62.7,38.0,30.00,SSE,147,9.2,9.2,40,0.00,CLR,,0.00,WeatherDisplay:10.37,2013-03-10 14:47:00,
2013-03-10 09:49:00,62.8,37.5,30.00,SSW,195,4.6,4.6,39,0.00,CLR,,0.00,WeatherDisplay:10.37,2013-03-10 14:49:00,
2013-03-10 09:52:00,63.0,38.9,30.00,SSE,164,4.6,4.6,41,0.00,CLR,,0.00,WeatherDisplay:10.37,2013-03-10 14:52:00,
2013-03-10 09:53:00,63.0,38.9,30.00,SSW,201,9.2,9.2,41,0.00,CLR,,0.00,WeatherDisplay:10.37,2013-03-10 14:53:00,
2013-03-10 09:54:00,63.1,39.0,29.99,SSW,201,5.0,5.0,41,0.00,CLR,,0.00,WeatherDisplay:10.37,2013-03-10 14:54:00,
2013-03-10 09:57:00,63.1,37.7,29.99,SSW,212,6.0,6.0,39,0.00,CLR,,0.00,WeatherDisplay:10.37,2013-03-10 14:57:00,
2013-03-10 09:58:00,63.1,37.7,29.99,SSW,212,5.8,5.8,39,0.00,CLR,,0.00,WeatherDisplay:10.37,2013-03-10 14:58:00,
2013-03-10 09:59:00,63.1,39.0,29.99,SE,133,5.8,5.8,41,0.00,CLR,,0.00,WeatherDisplay:10.37,2013-03-10 14:59:00,
2013-03-10 10:02:00,63.4,38.6,29.99,SSE,162,5.8,5.8,40,0.00,CLR,,0.00,WeatherDisplay:10.37,2013-03-10 15:02:00,
2013-03-10 10:03:00,63.4,38.6,29.99,SSE,166,5.8,5.8,40,0.00,CLR,,0.00,WeatherDisplay:10.37,2013-03-10 15:03:00,
2013-03-10 10:04:00,63.5,39.4,29.98,SSE,152,6.9,6.9,41,0.00,CLR,,0.00,WeatherDisplay:10.37,2013-03-10 15:04:00,
2013-03-10 10:07:00,63.7,38.3,29.98,South,187,6.9,6.9,39,0.00,CLR,,0.00,WeatherDisplay:10.37,2013-03-10 15:07:00,
2013-03-10 10:08:00,63.7,38.9,29.98,SSE,147,7.0,7.0,40,0.00,CLR,,0.00,WeatherDisplay:10.37,2013-03-10 15:08:00,
2013-03-10 10:09:00,63.8,39.0,29.98,SSE,149,9.2,9.2,40,0.00,CLR,,0.00,WeatherDisplay:10.37,2013-03-10 15:09:00,
2013-03-10 10:10:00,63.8,38.4,29.98,SSE,154,9.2,9.2,39,0.00,CLR,,0.00,WeatherDisplay:10.37,2013-03-10 15:10:00,
2013-03-10 10:13:00,63.9,38.4,29.98,South,172,9.2,9.2,39,0.00,CLR,,0.00,WeatherDisplay:10.37,2013-03-10 15:13:00,
2013-03-10 10:14:00,63.8,38.4,29.98,SSE,156,10.4,10.4,39,0.00,CLR,,0.00,WeatherDisplay:10.37,2013-03-10 15:14:00,
2013-03-10 10:15:00,63.8,37.7,29.98,WSW,237,13.8,13.8,38,0.00,CLR,,0.00,WeatherDisplay:10.37,2013-03-10 15:15:00,
2013-03-10 10:18:00,63.6,38.8,29.99,SW,217,11.5,11.5,40,0.00,CLR,,0.00,WeatherDisplay:10.37,2013-03-10 15:18:00,
2013-03-10 10:19:00,63.6,38.2,29.98,SSE,155,6.9,6.9,39,0.00,CLR,,0.00,WeatherDisplay:10.37,2013-03-10 15:19:00,
2013-03-10 10:20:00,63.6,38.2,29.98,South,171,16.1,16.1,39,0.00,CLR,,0.00,WeatherDisplay:10.37,2013-03-10 15:20:00,
2013-03-10 10:23:00,63.6,38.8,29.98,SSE,160,6.9,6.9,40,0.00,CLR,,0.00,WeatherDisplay:10.37,2013-03-10 15:23:00,
2013-03-10 10:24:00,63.6,38.8,29.98,South,183,8.1,8.1,40,0.00,CLR,,0.00,WeatherDisplay:10.37,2013-03-10 15:24:00,
2013-03-10 10:25:00,63.6,38.8,29.98,SSE,162,8.1,8.1,40,0.00,CLR,,0.00,WeatherDisplay:10.37,2013-03-10 15:25:00,
2013-03-10 10:28:00,63.8,38.4,29.98,SSW,199,13.8,13.8,39,0.00,CLR,,0.00,WeatherDisplay:10.37,2013-03-10 15:28:00,
2013-03-10 10:29:00,63.8,39.0,29.98,SSW,204,9.0,9.0,40,0.00,CLR,,0.00,WeatherDisplay:10.37,2013-03-10 15:29:00,
2013-03-10 10:30:00,63.8,38.4,29.98,South,182,8.1,8.1,39,0.00,CLR,,0.00,WeatherDisplay:10.37,2013-03-10 15:30:00,
2013-03-10 10:33:00,63.9,39.1,29.98,South,185,9.2,9.2,40,0.00,CLR,,0.00,WeatherDisplay:10.37,2013-03-10 15:33:00,
2013-03-10 10:34:00,64.0,39.2,29.98,West,270,10.4,10.4,40,0.00,CLR,,0.00,WeatherDisplay:10.37,2013-03-10 15:34:00,
2013-03-10 10:35:00,64.0,39.2,29.98,SW,223,15.0,15.0,40,0.00,CLR,,0.00,WeatherDisplay:10.37,2013-03-10 15:35:00,
2013-03-10 10:38:00,64.2,38.7,29.99,South,181,13.8,13.8,39,0.00,CLR,,0.00,WeatherDisplay:10.37,2013-03-10 15:38:00,
2013-03-10 10:39:00,64.2,38.7,29.99,South,176,10.4,10.4,39,0.00,CLR,,0.00,WeatherDisplay:10.37,2013-03-10 15:39:00,
2013-03-10 10:40:00,64.1,38.6,29.99,South,175,11.5,11.5,39,0.00,CLR,,0.00,WeatherDisplay:10.37,2013-03-10 15:40:00,
2013-03-10 10:43:00,64.0,39.2,29.98,SSE,162,10.4,10.4,40,0.00,CLR,,0.00,WeatherDisplay:10.37,2013-03-10 15:43:00,
2013-03-10 10:44:00,63.9,38.4,29.98,South,179,9.2,9.2,39,0.00,CLR,,0.00,WeatherDisplay:10.37,2013-03-10 15:44:00,
2013-03-10 10:45:00,63.9,39.1,29.98,South,170,9.2,9.2,40,0.00,CLR,,0.00,WeatherDisplay:10.37,2013-03-10 15:45:00,
2013-03-10 10:48:00,63.8,39.0,29.98,South,187,10.4,10.4,40,0.00,CLR,,0.00,WeatherDisplay:10.37,2013-03-10 15:48:00,
2013-03-10 10:50:00,63.8,39.0,29.98,South,188,11.5,11.5,40,0.00,CLR,,0.00,WeatherDisplay:10.37,2013-03-10 15:50:00,
2013-03-10 10:53:00,63.8,39.0,29.98,South,176,13.8,13.8,40,0.00,CLR,,0.00,WeatherDisplay:10.37,2013-03-10 15:53:00,
2013-03-10 10:55:00,63.8,39.0,29.98,South,180,9.2,9.2,40,0.00,CLR,,0.00,WeatherDisplay:10.37,2013-03-10 15:55:00,
2013-03-10 10:56:00,63.9,39.7,29.98,SSW,209,10.4,10.4,41,0.00,CLR,,0.00,WeatherDisplay:10.37,2013-03-10 15:56:00,
2013-03-10 10:58:00,63.8,39.6,29.99,SW,218,13.8,13.8,41,0.00,CLR,,0.00,WeatherDisplay:10.37,2013-03-10 15:58:00,
2013-03-10 11:00:00,63.8,39.0,29.99,SSW,197,13.8,13.8,40,0.00,CLR,,0.00,WeatherDisplay:10.37,2013-03-10 16:00:00,
2013-03-10 11:01:00,63.8,39.0,29.99,SSE,165,11.5,11.5,40,0.00,CLR,,0.00,WeatherDisplay:10.37,2013-03-10 16:01:00,
2013-03-10 11:03:00,63.9,39.1,29.99,SSW,197,11.5,11.5,40,0.00,CLR,,0.00,WeatherDisplay:10.37,2013-03-10 16:03:00,
2013-03-10 11:05:00,63.9,39.1,29.99,SSW,192,8.1,8.1,40,0.00,CLR,,0.00,WeatherDisplay:10.37,2013-03-10 16:05:00,
2013-03-10 11:06:00,64.0,39.8,29.99,SSW,201,10.4,10.4,41,0.00,CLR,,0.00,WeatherDisplay:10.37,2013-03-10 16:06:00,
2013-03-10 11:08:00,64.1,39.9,29.99,South,186,10.4,10.4,41,0.00,CLR,,0.00,WeatherDisplay:10.37,2013-03-10 16:08:00,
2013-03-10 11:10:00,64.1,39.3,29.99,SSE,160,9.2,9.2,40,0.00,CLR,,0.00,WeatherDisplay:10.37,2013-03-10 16:10:00,
2013-03-10 11:11:00,64.2,40.0,29.99,SSE,151,9.2,9.2,41,0.00,CLR,,0.00,WeatherDisplay:10.37,2013-03-10 16:11:00,
2013-03-10 11:14:00,64.4,39.5,29.99,SSE,156,12.7,12.7,40,0.00,CLR,,0.00,WeatherDisplay:10.37,2013-03-10 16:14:00,
2013-03-10 11:15:00,64.5,40.3,29.99,SE,126,8.1,8.1,41,0.00,CLR,,0.00,WeatherDisplay:10.37,2013-03-10 16:15:00,
2013-03-10 11:16:00,64.6,41.0,29.99,SE,146,10.0,10.0,42,0.00,CLR,,0.00,WeatherDisplay:10.37,2013-03-10 16:16:00,
2013-03-10 11:19:00,64.8,39.9,29.99,SSW,207,11.5,11.5,40,0.00,CLR,,0.00,WeatherDisplay:10.37,2013-03-10 16:19:00,
2013-03-10 11:20:00,64.8,40.5,29.99,SSW,197,10.0,10.0,41,0.00,CLR,,0.00,WeatherDisplay:10.37,2013-03-10 16:20:00,
2013-03-10 11:21:00,64.8,39.9,29.98,SSE,163,10.4,10.4,40,0.00,CLR,,0.00,WeatherDisplay:10.37,2013-03-10 16:21:00,
2013-03-10 11:22:00,64.9,40.0,29.98,South,174,10.4,10.4,40,0.00,CLR,,0.00,WeatherDisplay:10.37,2013-03-10 16:22:00,
2013-03-10 11:24:00,65.0,40.1,29.98,South,178,9.2,9.2,40,0.00,CLR,,0.00,WeatherDisplay:10.37,2013-03-10 16:24:00,
2013-03-10 11:25:00,65.1,40.2,29.98,South,189,11.5,11.5,40,0.00,CLR,,0.00,WeatherDisplay:10.37,2013-03-10 16:25:00,
2013-03-10 11:26:00,65.1,40.2,29.98,South,182,11.5,11.5,40,0.00,CLR,,0.00,WeatherDisplay:10.37,2013-03-10 16:26:00,
2013-03-10 11:27:00,65.2,40.9,29.98,SSW,194,10.4,10.4,41,0.00,CLR,,0.00,WeatherDisplay:10.37,2013-03-10 16:27:00,
2013-03-10 11:29:00,65.5,41.2,29.98,SSW,206,10.4,10.4,41,0.00,CLR,,0.00,WeatherDisplay:10.37,2013-03-10 16:29:00,
2013-03-10 11:30:00,65.7,40.7,29.99,SSE,159,9.2,9.2,40,0.00,CLR,,0.00,WeatherDisplay:10.37,2013-03-10 16:30:00,
2013-03-10 11:31:00,65.9,41.5,29.99,SSW,199,9.2,9.2,41,0.00,CLR,,0.00,WeatherDisplay:10.37,2013-03-10 16:31:00,
2013-03-10 11:32:00,66.0,41.6,29.98,South,190,5.8,5.8,41,0.00,CLR,,0.00,WeatherDisplay:10.37,2013-03-10 16:32:00,
2013-03-10 11:34:00,66.5,41.4,29.98,South,184,10.4,10.4,40,0.00,CLR,,0.00,WeatherDisplay:10.37,2013-03-10 16:34:00,
2013-03-10 11:35:00,66.6,41.5,29.98,South,187,10.4,10.4,40,0.00,CLR,,0.00,WeatherDisplay:10.37,2013-03-10 16:35:00,
2013-03-10 11:37:00,66.7,40.9,29.98,South,169,12.7,12.7,39,0.00,CLR,,0.00,WeatherDisplay:10.37,2013-03-10 16:37:00,
2013-03-10 11:40:00,66.8,41.0,29.98,South,172,11.5,11.5,39,0.00,CLR,,0.00,WeatherDisplay:10.37,2013-03-10 16:40:00,
2013-03-10 11:41:00,66.8,41.7,29.98,SSE,149,11.5,11.5,40,0.00,CLR,,0.00,WeatherDisplay:10.37,2013-03-10 16:41:00,
2013-03-10 11:42:00,66.9,41.1,29.98,SSW,210,10.4,10.4,39,0.00,CLR,,0.00,WeatherDisplay:10.37,2013-03-10 16:42:00,
2013-03-10 11:45:00,67.0,41.9,29.98,SSE,157,10.4,10.4,40,0.00,CLR,,0.00,WeatherDisplay:10.37,2013-03-10 16:45:00,
2013-03-10 11:46:00,67.0,41.9,29.98,South,187,9.2,9.2,40,0.00,CLR,,0.00,WeatherDisplay:10.37,2013-03-10 16:46:00,
2013-03-10 11:47:00,67.0,41.2,29.97,SSE,147,13.8,13.8,39,0.00,CLR,,0.00,WeatherDisplay:10.37,2013-03-10 16:47:00,
2013-03-10 11:50:00,67.0,41.9,29.97,SSW,195,10.4,10.4,40,0.00,CLR,,0.00,WeatherDisplay:10.37,2013-03-10 16:50:00,
2013-03-10 11:51:00,67.1,42.0,29.98,SSE,148,8.1,8.1,40,0.00,CLR,,0.00,WeatherDisplay:10.37,2013-03-10 16:51:00,
2013-03-10 11:52:00,67.1,41.3,29.97,SSW,193,9.2,9.2,39,0.00,CLR,,0.00,WeatherDisplay:10.37,2013-03-10 16:52:00,
2013-03-10 11:53:00,67.0,41.2,29.97,South,182,8.1,8.1,39,0.00,CLR,,0.00,WeatherDisplay:10.37,2013-03-10 16:53:00,
2013-03-10 11:55:00,67.0,41.2,29.97,SSW,199,13.8,13.8,39,0.00,CLR,,0.00,WeatherDisplay:10.37,2013-03-10 16:55:00,
2013-03-10 11:56:00,67.0,41.9,29.98,SSE,148,11.5,11.5,40,0.00,CLR,,0.00,WeatherDisplay:10.37,2013-03-10 16:56:00,
2013-03-10 11:57:00,67.1,42.6,29.97,SSE,156,10.4,10.4,41,0.00,CLR,,0.00,WeatherDisplay:10.37,2013-03-10 16:57:00,
2013-03-10 11:58:00,67.2,42.0,29.97,SSW,195,9.2,9.2,40,0.00,CLR,,0.00,WeatherDisplay:10.37,2013-03-10 16:58:00,
2013-03-10 12:00:00,67.2,41.4,29.97,SSE,160,10.4,10.4,39,0.00,CLR,,0.00,WeatherDisplay:10.37,2013-03-10 17:00:00,
2013-03-10 12:02:00,67.2,42.0,29.97,South,172,4.6,4.6,40,0.00,CLR,,0.00,WeatherDisplay:10.37,2013-03-10 17:02:00,
2013-03-10 12:03:00,67.3,42.1,29.97,SSW,203,9.0,9.0,40,0.00,CLR,,0.00,WeatherDisplay:10.37,2013-03-10 17:03:00,
2013-03-10 12:05:00,67.2,42.0,29.97,SSE,166,11.5,11.5,40,0.00,CLR,,0.00,WeatherDisplay:10.37,2013-03-10 17:05:00,
2013-03-10 12:07:00,67.2,42.0,29.97,South,187,8.1,8.1,40,0.00,CLR,,0.00,WeatherDisplay:10.37,2013-03-10 17:07:00,
2013-03-10 12:08:00,67.2,41.4,29.98,SSW,193,10.4,10.4,39,0.00,CLR,,0.00,WeatherDisplay:10.37,2013-03-10 17:08:00,
2013-03-10 12:10:00,67.3,42.1,29.98,SSW,201,11.5,11.5,40,0.00,CLR,,0.00,WeatherDisplay:10.37,2013-03-10 17:10:00,
2013-03-10 12:12:00,67.4,42.2,29.98,South,174,8.1,8.1,40,0.00,CLR,,0.00,WeatherDisplay:10.37,2013-03-10 17:12:00,
2013-03-10 12:13:00,67.4,41.6,29.98,SSW,200,9.2,9.2,39,0.00,CLR,,0.00,WeatherDisplay:10.37,2013-03-10 17:13:00,
2013-03-10 12:15:00,67.7,43.1,29.98,SSW,195,8.1,8.1,41,0.00,CLR,,0.00,WeatherDisplay:10.37,2013-03-10 17:15:00,
2013-03-10 12:17:00,67.9,42.7,29.98,SSW,194,9.2,9.2,40,0.00,CLR,,0.00,WeatherDisplay:10.37,2013-03-10 17:17:00,
2013-03-10 12:18:00,68.1,42.2,29.97,South,183,6.9,6.9,39,0.00,CLR,,0.00,WeatherDisplay:10.37,2013-03-10 17:18:00,
2013-03-10 12:20:00,68.3,42.4,29.97,South,170,8.1,8.1,39,0.00,CLR,,0.00,WeatherDisplay:10.37,2013-03-10 17:20:00,
2013-03-10 12:22:00,68.4,43.1,29.97,SSE,150,4.6,4.6,40,0.00,CLR,,0.00,WeatherDisplay:10.37,2013-03-10 17:22:00,
2013-03-10 12:23:00,68.6,42.0,29.97,SSE,162,9.2,9.2,38,0.00,CLR,,0.00,WeatherDisplay:10.37,2013-03-10 17:23:00,
2013-03-10 12:25:00,68.8,42.1,29.97,South,184,10.4,10.4,38,0.00,CLR,,0.00,WeatherDisplay:10.37,2013-03-10 17:25:00,
2013-03-10 12:27:00,68.8,41.5,29.96,South,171,11.5,11.5,37,0.00,CLR,,0.00,WeatherDisplay:10.37,2013-03-10 17:27:00,
2013-03-10 12:28:00,68.7,42.1,29.97,SSW,207,5.8,5.8,38,0.00,CLR,,0.00,WeatherDisplay:10.37,2013-03-10 17:28:00,
2013-03-10 12:30:00,68.7,41.4,29.96,SE,145,8.1,8.1,37,0.00,CLR,,0.00,WeatherDisplay:10.37,2013-03-10 17:30:00,
2013-03-10 12:32:00,68.8,42.1,29.96,South,184,5.8,5.8,38,0.00,CLR,,0.00,WeatherDisplay:10.37,2013-03-10 17:32:00,
2013-03-10 12:33:00,68.8,42.1,29.96,SW,222,5.0,5.0,38,0.00,CLR,,0.00,WeatherDisplay:10.37,2013-03-10 17:33:00,
2013-03-10 12:34:00,68.8,42.1,29.96,SSW,195,4.6,4.6,38,0.00,CLR,,0.00,WeatherDisplay:10.37,2013-03-10 17:34:00,
2013-03-10 12:36:00,68.9,41.5,29.97,South,178,9.2,9.2,37,0.00,CLR,,0.00,WeatherDisplay:10.37,2013-03-10 17:36:00,
2013-03-10 12:37:00,68.9,42.2,29.97,South,189,5.8,5.8,38,0.00,CLR,,0.00,WeatherDisplay:10.37,2013-03-10 17:37:00,
2013-03-10 12:38:00,68.9,41.5,29.97,SSW,201,11.5,11.5,37,0.00,CLR,,0.00,WeatherDisplay:10.37,2013-03-10 17:38:00,
2013-03-10 12:39:00,68.9,41.5,29.97,South,191,11.5,11.5,37,0.00,CLR,,0.00,WeatherDisplay:10.37,2013-03-10 17:39:00,
2013-03-10 12:41:00,68.9,42.2,29.97,South,171,6.9,6.9,38,0.00,CLR,,0.00,WeatherDisplay:10.37,2013-03-10 17:41:00,
2013-03-10 12:43:00,68.8,42.1,29.97,SSE,168,9.2,9.2,38,0.00,CLR,,0.00,WeatherDisplay:10.37,2013-03-10 17:43:00,
2013-03-10 12:44:00,68.8,42.1,29.97,SSW,206,6.9,6.9,38,0.00,CLR,,0.00,WeatherDisplay:10.37,2013-03-10 17:44:00,
2013-03-10 12:46:00,68.8,42.1,29.97,SW,226,10.4,10.4,38,0.00,CLR,,0.00,WeatherDisplay:10.37,2013-03-10 17:46:00,
2013-03-10 12:48:00,68.7,42.1,29.97,South,189,9.2,9.2,38,0.00,CLR,,0.00,WeatherDisplay:10.37,2013-03-10 17:48:00,
2013-03-10 12:49:00,68.6,41.3,29.96,South,179,11.5,11.5,37,0.00,CLR,,0.00,WeatherDisplay:10.37,2013-03-10 17:49:00,
2013-03-10 12:51:00,68.4,41.8,29.95,SSE,159,9.2,9.2,38,0.00,CLR,,0.00,WeatherDisplay:10.37,2013-03-10 17:51:00,
2013-03-10 12:53:00,68.4,41.8,29.95,SSE,158,9.2,9.2,38,0.00,CLR,,0.00,WeatherDisplay:10.37,2013-03-10 17:53:00,
2013-03-10 12:54:00,68.4,41.8,29.95,SSE,153,9.2,9.2,38,0.00,CLR,,0.00,WeatherDisplay:10.37,2013-03-10 17:54:00,
2013-03-10 12:56:00,68.3,41.7,29.94,South,189,9.2,9.2,38,0.00,CLR,,0.00,WeatherDisplay:10.37,2013-03-10 17:56:00,
2013-03-10 12:58:00,68.3,41.7,29.94,South,172,10.4,10.4,38,0.00,CLR,,0.00,WeatherDisplay:10.37,2013-03-10 17:58:00,
2013-03-10 12:59:00,68.2,41.6,29.94,South,188,11.5,11.5,38,0.00,CLR,,0.00,WeatherDisplay:10.37,2013-03-10 17:59:00,
2013-03-10 13:01:00,68.1,41.5,29.94,South,178,11.5,11.5,38,0.00,CLR,,0.00,WeatherDisplay:10.37,2013-03-10 18:01:00,
2013-03-10 13:04:00,68.0,42.1,29.94,ESE,104,8.1,8.1,39,0.00,CLR,,0.00,WeatherDisplay:10.37,2013-03-10 18:04:00,
2013-03-10 13:05:00,68.0,42.1,29.94,SSE,167,9.0,9.0,39,0.00,CLR,,0.00,WeatherDisplay:10.37,2013-03-10 18:05:00,
2013-03-10 13:06:00,68.0,41.4,29.94,SSE,168,11.5,11.5,38,0.00,CLR,,0.00,WeatherDisplay:10.37,2013-03-10 18:06:00,
2013-03-10 13:09:00,68.0,41.4,29.93,SSE,162,10.0,10.0,38,0.00,CLR,,0.00,WeatherDisplay:10.37,2013-03-10 18:09:00,
2013-03-10 13:10:00,68.0,40.7,29.94,South,174,11.5,11.5,37,0.00,CLR,,0.00,WeatherDisplay:10.37,2013-03-10 18:10:00,
2013-03-10 13:11:00,68.0,40.7,29.94,South,170,11.5,11.5,37,0.00,CLR,,0.00,WeatherDisplay:10.37,2013-03-10 18:11:00,
2013-03-10 13:15:00,67.9,40.7,29.94,SSE,167,10.4,10.4,37,0.00,CLR,,0.00,WeatherDisplay:10.37,2013-03-10 18:15:00,
2013-03-10 13:16:00,67.9,41.3,29.94,South,185,7.0,7.0,38,0.00,CLR,,0.00,WeatherDisplay:10.37,2013-03-10 18:16:00,
2013-03-10 13:17:00,67.9,41.3,29.94,SSE,156,12.7,12.7,38,0.00,CLR,,0.00,WeatherDisplay:10.37,2013-03-10 18:17:00,
2013-03-10 13:20:00,68.0,41.4,29.94,SSW,203,10.4,10.4,38,0.00,CLR,,0.00,WeatherDisplay:10.37,2013-03-10 18:20:00,
2013-03-10 13:21:00,68.0,41.4,29.94,South,188,11.5,11.5,38,0.00,CLR,,0.00,WeatherDisplay:10.37,2013-03-10 18:21:00,
2013-03-10 13:22:00,68.0,41.4,29.94,South,172,12.7,12.7,38,0.00,CLR,,0.00,WeatherDisplay:10.37,2013-03-10 18:22:00,
2013-03-10 13:25:00,68.2,41.6,29.94,South,176,12.7,12.7,38,0.00,CLR,,0.00,WeatherDisplay:10.37,2013-03-10 18:25:00,
2013-03-10 13:26:00,68.3,41.0,29.94,SSW,193,11.5,11.5,37,0.00,CLR,,0.00,WeatherDisplay:10.37,2013-03-10 18:26:00,
2013-03-10 13:27:00,68.3,41.0,29.94,South,189,13.8,13.8,37,0.00,CLR,,0.00,WeatherDisplay:10.37,2013-03-10 18:27:00,
2013-03-10 13:30:00,68.4,41.8,29.94,SSE,155,13.8,13.8,38,0.00,CLR,,0.00,WeatherDisplay:10.37,2013-03-10 18:30:00,
2013-03-10 13:31:00,68.5,41.2,29.93,South,176,10.4,10.4,37,0.00,CLR,,0.00,WeatherDisplay:10.37,2013-03-10 18:31:00,
2013-03-10 13:32:00,68.4,41.1,29.93,SW,214,9.2,9.2,37,0.00,CLR,,0.00,WeatherDisplay:10.37,2013-03-10 18:32:00,
2013-03-10 13:36:00,68.3,41.0,29.93,SSW,199,9.2,9.2,37,0.00,CLR,,0.00,WeatherDisplay:10.37,2013-03-10 18:36:00,
2013-03-10 13:37:00,68.2,40.9,29.93,SE,144,9.0,9.0,37,0.00,CLR,,0.00,WeatherDisplay:10.37,2013-03-10 18:37:00,
2013-03-10 13:41:00,68.1,41.5,29.93,SSE,147,8.1,8.1,38,0.00,CLR,,0.00,WeatherDisplay:10.37,2013-03-10 18:41:00,
2013-03-10 13:42:00,68.2,41.6,29.93,SE,135,9.2,9.2,38,0.00,CLR,,0.00,WeatherDisplay:10.37,2013-03-10 18:42:00,
2013-03-10 13:43:00,68.3,41.0,29.93,SSE,156,9.2,9.2,37,0.00,CLR,,0.00,WeatherDisplay:10.37,2013-03-10 18:43:00,
2013-03-10 13:46:00,68.7,41.4,29.93,SSW,199,13.8,13.8,37,0.00,CLR,,0.00,WeatherDisplay:10.37,2013-03-10 18:46:00,
2013-03-10 13:47:00,68.9,41.5,29.93,SSE,159,10.4,10.4,37,0.00,CLR,,0.00,WeatherDisplay:10.37,2013-03-10 18:47:00,
2013-03-10 13:48:00,69.0,41.6,29.93,SSE,156,9.2,9.2,37,0.00,CLR,,0.00,WeatherDisplay:10.37,2013-03-10 18:48:00,
2013-03-10 13:51:00,69.3,41.2,29.93,SSW,208,16.1,16.1,36,0.00,CLR,,0.00,WeatherDisplay:10.37,2013-03-10 18:51:00,
2013-03-10 13:52:00,69.2,41.1,29.93,South,185,16.1,16.1,36,0.00,CLR,,0.00,WeatherDisplay:10.37,2013-03-10 18:52:00,
2013-03-10 13:53:00,69.2,41.1,29.94,SSW,203,15.0,15.0,36,0.00,CLR,,0.00,WeatherDisplay:10.37,2013-03-10 18:53:00,
2013-03-10 13:56:00,68.9,40.8,29.92,SW,214,13.8,13.8,36,0.00,CLR,,0.00,WeatherDisplay:10.37,2013-03-10 18:56:00,
2013-03-10 13:57:00,68.9,40.8,29.92,SE,128,12.7,12.7,36,0.00,CLR,,0.00,WeatherDisplay:10.37,2013-03-10 18:57:00,
2013-03-10 13:58:00,68.9,41.5,29.92,SSW,204,9.2,9.2,37,0.00,CLR,,0.00,WeatherDisplay:10.37,2013-03-10 18:58:00,
2013-03-10 14:01:00,68.9,41.5,29.93,South,181,11.5,11.5,37,0.00,CLR,,0.00,WeatherDisplay:10.37,2013-03-10 19:01:00,
2013-03-10 14:02:00,68.9,41.5,29.93,South,188,7.0,7.0,37,0.00,CLR,,0.00,WeatherDisplay:10.37,2013-03-10 19:02:00,
2013-03-10 14:03:00,68.9,40.8,29.93,South,178,6.9,6.9,36,0.00,CLR,,0.00,WeatherDisplay:10.37,2013-03-10 19:03:00,
2013-03-10 14:06:00,68.6,41.3,29.92,SSW,200,12.7,12.7,37,0.00,CLR,,0.00,WeatherDisplay:10.37,2013-03-10 19:06:00,
2013-03-10 14:07:00,68.6,41.3,29.92,SSE,164,11.5,11.5,37,0.00,CLR,,0.00,WeatherDisplay:10.37,2013-03-10 19:07:00,
2013-03-10 14:08:00,68.5,41.2,29.92,South,174,10.4,10.4,37,0.00,CLR,,0.00,WeatherDisplay:10.37,2013-03-10 19:08:00,
2013-03-10 14:12:00,68.2,41.6,29.92,SSW,203,6.9,6.9,38,0.00,CLR,,0.00,WeatherDisplay:10.37,2013-03-10 19:12:00,
2013-03-10 14:13:00,68.2,41.6,29.92,South,187,6.9,6.9,38,0.00,CLR,,0.00,WeatherDisplay:10.37,2013-03-10 19:13:00,
2013-03-10 14:17:00,68.3,42.4,29.92,SW,235,6.9,6.9,39,0.00,CLR,,0.00,WeatherDisplay:10.37,2013-03-10 19:17:00,
2013-03-10 14:18:00,68.3,41.7,29.92,South,187,6.9,6.9,38,0.00,CLR,,0.00,WeatherDisplay:10.37,2013-03-10 19:18:00,
2013-03-10 14:19:00,68.3,41.7,29.92,SW,215,11.0,11.0,38,0.00,CLR,,0.00,WeatherDisplay:10.37,2013-03-10 19:19:00,
2013-03-10 14:22:00,68.1,40.8,29.92,South,190,8.1,8.1,37,0.00,CLR,,0.00,WeatherDisplay:10.37,2013-03-10 19:22:00,
2013-03-10 14:23:00,68.1,41.5,29.92,SSW,204,8.1,8.1,38,0.00,CLR,,0.00,WeatherDisplay:10.37,2013-03-10 19:23:00,
2013-03-10 14:24:00,68.1,41.5,29.92,South,176,12.0,12.0,38,0.00,CLR,,0.00,WeatherDisplay:10.37,2013-03-10 19:24:00,
2013-03-10 14:27:00,68.3,41.7,29.92,South,169,9.2,9.2,38,0.00,CLR,,0.00,WeatherDisplay:10.37,2013-03-10 19:27:00,
2013-03-10 14:28:00,68.3,41.7,29.92,SSE,151,8.1,8.1,38,0.00,CLR,,0.00,WeatherDisplay:10.37,2013-03-10 19:28:00,
2013-03-10 14:29:00,68.4,41.8,29.92,SW,217,8.1,8.1,38,0.00,CLR,,0.00,WeatherDisplay:10.37,2013-03-10 19:29:00,
2013-03-10 14:33:00,68.5,41.9,29.92,SSE,156,8.0,8.0,38,0.00,CLR,,0.00,WeatherDisplay:10.37,2013-03-10 19:33:00,
2013-03-10 14:34:00,68.5,41.9,29.92,SSW,211,11.5,11.5,38,0.00,CLR,,0.00,WeatherDisplay:10.37,2013-03-10 19:34:00,
2013-03-10 14:38:00,68.9,42.2,29.92,South,186,11.5,11.5,38,0.00,CLR,,0.00,WeatherDisplay:10.37,2013-03-10 19:38:00,
2013-03-10 14:39:00,69.0,42.3,29.92,South,190,9.2,9.2,38,0.00,CLR,,0.00,WeatherDisplay:10.37,2013-03-10 19:39:00,
2013-03-10 14:40:00,69.1,42.4,29.92,South,183,5.8,5.8,38,0.00,CLR,,0.00,WeatherDisplay:10.37,2013-03-10 19:40:00,
2013-03-10 14:43:00,69.3,43.3,29.91,South,190,9.0,9.0,39,0.00,CLR,,0.00,WeatherDisplay:10.37,2013-03-10 19:43:00,
2013-03-10 14:44:00,69.4,43.4,29.91,SSE,166,12.0,12.0,39,0.00,CLR,,0.00,WeatherDisplay:10.37,2013-03-10 19:44:00,
2013-03-10 14:45:00,69.5,42.1,29.91,SSW,212,11.5,11.5,37,0.00,CLR,,0.00,WeatherDisplay:10.37,2013-03-10 19:45:00,
2013-03-10 14:49:00,69.5,42.1,29.91,SSE,166,5.8,5.8,37,0.00,CLR,,0.00,WeatherDisplay:10.37,2013-03-10 19:49:00,
2013-03-10 14:50:00,69.5,42.1,29.91,South,185,9.2,9.2,37,0.00,CLR,,0.00,WeatherDisplay:10.37,2013-03-10 19:50:00,
2013-03-10 14:54:00,69.3,41.2,29.90,South,185,10.4,10.4,36,0.00,CLR,,0.00,WeatherDisplay:10.37,2013-03-10 19:54:00,
2013-03-10 14:55:00,69.3,41.9,29.90,SSW,212,6.9,6.9,37,0.00,CLR,,0.00,WeatherDisplay:10.37,2013-03-10 19:55:00,
2013-03-10 14:59:00,69.7,42.3,29.89,SSE,154,9.0,9.0,37,0.00,CLR,,0.00,WeatherDisplay:10.37,2013-03-10 19:59:00,
2013-03-10 15:00:00,69.8,42.3,29.89,South,171,9.2,9.2,37,0.00,CLR,,0.00,WeatherDisplay:10.37,2013-03-10 20:00:00,
2013-03-10 15:04:00,69.8,41.6,29.90,South,185,11.5,11.5,36,0.00,CLR,,0.00,WeatherDisplay:10.37,2013-03-10 20:04:00,
2013-03-10 15:06:00,69.7,42.3,29.89,SSW,208,15.0,15.0,37,0.00,CLR,,0.00,WeatherDisplay:10.37,2013-03-10 20:06:00,
2013-03-10 15:07:00,69.7,42.3,29.89,SSE,162,9.2,9.2,37,0.00,CLR,,0.00,WeatherDisplay:10.37,2013-03-10 20:07:00,
2013-03-10 15:10:00,69.9,43.1,29.89,SSW,195,8.0,8.0,38,0.00,CLR,,0.00,WeatherDisplay:10.37,2013-03-10 20:10:00,
2013-03-10 15:11:00,69.9,42.4,29.89,South,177,10.4,10.4,37,0.00,CLR,,0.00,WeatherDisplay:10.37,2013-03-10 20:11:00,
2013-03-10 15:12:00,70.0,42.5,29.89,South,181,10.4,10.4,37,0.00,CLR,,0.00,WeatherDisplay:10.37,2013-03-10 20:12:00,
2013-03-10 15:13:00,70.1,43.3,29.89,SSW,211,8.1,8.1,38,0.00,CLR,,0.00,WeatherDisplay:10.37,2013-03-10 20:13:00,
2013-03-10 15:15:00,70.0,41.8,29.89,SSE,156,8.0,8.0,36,0.00,CLR,,0.00,WeatherDisplay:10.37,2013-03-10 20:15:00,
2013-03-10 15:17:00,70.0,41.8,29.88,SE,146,9.2,9.2,36,0.00,CLR,,0.00,WeatherDisplay:10.37,2013-03-10 20:17:00,
2013-03-10 15:18:00,70.0,42.5,29.89,South,181,11.5,11.5,37,0.00,CLR,,0.00,WeatherDisplay:10.37,2013-03-10 20:18:00,
2013-03-10 15:20:00,69.7,41.5,29.89,SSE,168,12.7,12.7,36,0.00,CLR,,0.00,WeatherDisplay:10.37,2013-03-10 20:20:00,
2013-03-10 15:22:00,69.5,41.4,29.89,SSE,168,9.2,9.2,36,0.00,CLR,,0.00,WeatherDisplay:10.37,2013-03-10 20:22:00,
2013-03-10 15:23:00,69.4,41.3,29.89,South,178,8.1,8.1,36,0.00,CLR,,0.00,WeatherDisplay:10.37,2013-03-10 20:23:00,
2013-03-10 15:26:00,69.3,41.9,29.89,South,176,6.9,6.9,37,0.00,CLR,,0.00,WeatherDisplay:10.37,2013-03-10 20:26:00,
2013-03-10 15:27:00,69.2,41.8,29.89,South,187,8.1,8.1,37,0.00,CLR,,0.00,WeatherDisplay:10.37,2013-03-10 20:27:00,
2013-03-10 15:28:00,69.2,41.8,29.89,SSW,197,7.0,7.0,37,0.00,CLR,,0.00,WeatherDisplay:10.37,2013-03-10 20:28:00,
2013-03-10 15:31:00,69.0,41.6,29.89,SSE,161,11.5,11.5,37,0.00,CLR,,0.00,WeatherDisplay:10.37,2013-03-10 20:31:00,
2013-03-10 15:32:00,69.0,40.9,29.89,South,181,10.4,10.4,36,0.00,CLR,,0.00,WeatherDisplay:10.37,2013-03-10 20:32:00,
2013-03-10 15:33:00,68.9,41.5,29.89,SSE,149,10.4,10.4,37,0.00,CLR,,0.00,WeatherDisplay:10.37,2013-03-10 20:33:00,
2013-03-10 15:37:00,68.7,41.4,29.88,SSE,159,5.8,5.8,37,0.00,CLR,,0.00,WeatherDisplay:10.37,2013-03-10 20:37:00,
2013-03-10 15:38:00,68.7,42.1,29.88,SE,137,4.0,4.0,38,0.00,CLR,,0.00,WeatherDisplay:10.37,2013-03-10 20:38:00,
2013-03-10 15:42:00,68.7,41.4,29.88,South,185,11.5,11.5,37,0.00,CLR,,0.00,WeatherDisplay:10.37,2013-03-10 20:42:00,
2013-03-10 15:43:00,68.6,42.0,29.88,ESE,120,8.1,8.1,38,0.00,CLR,,0.00,WeatherDisplay:10.37,2013-03-10 20:43:00,
2013-03-10 15:44:00,68.7,42.1,29.88,SSE,151,11.5,11.5,38,0.00,CLR,,0.00,WeatherDisplay:10.37,2013-03-10 20:44:00,
2013-03-10 15:48:00,68.8,41.5,29.88,SSE,168,6.9,6.9,37,0.00,CLR,,0.00,WeatherDisplay:10.37,2013-03-10 20:48:00,
2013-03-10 15:50:00,68.9,41.5,29.88,SSE,166,8.1,8.1,37,0.00,CLR,,0.00,WeatherDisplay:10.37,2013-03-10 20:50:00,
2013-03-10 15:53:00,69.0,41.6,29.87,SSE,154,5.8,5.8,37,0.00,CLR,,0.00,WeatherDisplay:10.37,2013-03-10 20:53:00,
2013-03-10 15:55:00,69.0,41.6,29.87,SSE,158,9.2,9.2,37,0.00,CLR,,0.00,WeatherDisplay:10.37,2013-03-10 20:55:00,
2013-03-10 15:58:00,69.3,42.6,29.87,SE,140,6.9,6.9,38,0.00,CLR,,0.00,WeatherDisplay:10.37,2013-03-10 20:58:00,
2013-03-10 16:00:00,69.6,42.2,29.87,South,178,6.9,6.9,37,0.00,CLR,,0.00,WeatherDisplay:10.37,2013-03-10 21:00:00,
2013-03-10 16:03:00,70.3,42.8,29.87,ESE,120,5.8,5.8,37,0.00,CLR,,0.00,WeatherDisplay:10.37,2013-03-10 21:03:00,
2013-03-10 16:04:00,70.4,42.9,29.87,SE,144,6.9,6.9,37,0.00,CLR,,0.00,WeatherDisplay:10.37,2013-03-10 21:04:00,
2013-03-10 16:05:00,70.5,43.0,29.87,SSE,161,6.9,6.9,37,0.00,CLR,,0.00,WeatherDisplay:10.37,2013-03-10 21:05:00,
2013-03-10 16:09:00,70.6,42.3,29.87,South,169,11.5,11.5,36,0.00,CLR,,0.00,WeatherDisplay:10.37,2013-03-10 21:09:00,
2013-03-10 16:10:00,70.5,41.5,29.87,South,176,13.8,13.8,35,0.00,CLR,,0.00,WeatherDisplay:10.37,2013-03-10 21:10:00,
2013-03-10 16:14:00,70.3,41.3,29.86,South,185,12.7,12.7,35,0.00,CLR,,0.00,WeatherDisplay:10.37,2013-03-10 21:14:00,
2013-03-10 16:15:00,70.2,41.3,29.86,South,187,12.7,12.7,35,0.00,CLR,,0.00,WeatherDisplay:10.37,2013-03-10 21:15:00,
2013-03-10 16:19:00,70.1,41.2,29.86,SSW,193,12.7,12.7,35,0.00,CLR,,0.00,WeatherDisplay:10.37,2013-03-10 21:19:00,
2013-03-10 16:20:00,70.1,41.2,29.86,South,182,12.7,12.7,35,0.00,CLR,,0.00,WeatherDisplay:10.37,2013-03-10 21:20:00,
2013-03-10 16:24:00,70.1,41.2,29.86,SSE,158,9.2,9.2,35,0.00,CLR,,0.00,WeatherDisplay:10.37,2013-03-10 21:24:00,
2013-03-10 16:25:00,70.1,41.2,29.86,SSE,157,9.0,9.0,35,0.00,CLR,,0.00,WeatherDisplay:10.37,2013-03-10 21:25:00,
2013-03-10 16:29:00,70.2,41.3,29.86,South,184,10.4,10.4,35,0.00,CLR,,0.00,WeatherDisplay:10.37,2013-03-10 21:29:00,
2013-03-10 16:30:00,70.2,41.3,29.86,South,184,11.5,11.5,35,0.00,CLR,,0.00,WeatherDisplay:10.37,2013-03-10 21:30:00,
2013-03-10 16:34:00,70.1,41.9,29.86,SW,230,11.5,11.5,36,0.00,CLR,,0.00,WeatherDisplay:10.37,2013-03-10 21:34:00,
2013-03-10 16:35:00,70.1,41.9,29.86,South,187,6.9,6.9,36,0.00,CLR,,0.00,WeatherDisplay:10.37,2013-03-10 21:35:00,
2013-03-10 16:39:00,70.1,41.9,29.84,SE,143,8.1,8.1,36,0.00,CLR,,0.00,WeatherDisplay:10.37,2013-03-10 21:39:00,
2013-03-10 16:40:00,70.1,41.2,29.84,SSE,156,9.2,9.2,35,0.00,CLR,,0.00,WeatherDisplay:10.37,2013-03-10 21:40:00,
2013-03-10 16:41:00,70.1,41.9,29.84,South,189,10.4,10.4,36,0.00,CLR,,0.00,WeatherDisplay:10.37,2013-03-10 21:41:00,
2013-03-10 16:44:00,70.0,41.1,29.83,SSE,151,11.5,11.5,35,0.00,CLR,,0.00,WeatherDisplay:10.37,2013-03-10 21:44:00,
2013-03-10 16:45:00,70.0,41.1,29.83,SSE,149,10.4,10.4,35,0.00,CLR,,0.00,WeatherDisplay:10.37,2013-03-10 21:45:00,
2013-03-10 16:47:00,70.0,41.8,29.83,SSE,164,9.0,9.0,36,0.00,CLR,,0.00,WeatherDisplay:10.37,2013-03-10 21:47:00,
2013-03-10 16:50:00,69.9,41.7,29.83,SW,224,5.8,5.8,36,0.00,CLR,,0.00,WeatherDisplay:10.37,2013-03-10 21:50:00,
2013-03-10 16:53:00,69.8,42.3,29.83,SSW,209,5.8,5.8,37,0.00,CLR,,0.00,WeatherDisplay:10.37,2013-03-10 21:53:00,
2013-03-10 16:55:00,69.8,41.6,29.83,South,188,4.0,4.0,36,0.00,CLR,,0.00,WeatherDisplay:10.37,2013-03-10 21:55:00,
2013-03-10 16:56:00,69.8,41.6,29.83,SE,134,6.9,6.9,36,0.00,CLR,,0.00,WeatherDisplay:10.37,2013-03-10 21:56:00,
2013-03-10 16:58:00,69.9,42.4,29.83,SSE,152,11.5,11.5,37,0.00,CLR,,0.00,WeatherDisplay:10.37,2013-03-10 21:58:00,
2013-03-10 17:00:00,70.0,41.8,29.83,South,185,9.2,9.2,36,0.00,CLR,,0.00,WeatherDisplay:10.37,2013-03-10 22:00:00,
2013-03-10 17:01:00,70.0,41.8,29.83,SSE,166,10.4,10.4,36,0.00,CLR,,0.00,WeatherDisplay:10.37,2013-03-10 22:01:00,
2013-03-10 17:03:00,70.1,41.9,29.82,SSE,163,11.5,11.5,36,0.00,CLR,,0.00,WeatherDisplay:10.37,2013-03-10 22:03:00,
2013-03-10 17:05:00,70.1,41.9,29.83,South,183,4.6,4.7,36,0.00,CLR,,0.00,WeatherDisplay:10.37,2013-03-10 22:05:00,
2013-03-10 17:06:00,70.1,41.9,29.82,SSW,197,8.1,8.1,36,0.00,CLR,,0.00,WeatherDisplay:10.37,2013-03-10 22:06:00,
2013-03-10 17:08:00,70.1,41.9,29.83,South,178,11.5,11.5,36,0.00,CLR,,0.00,WeatherDisplay:10.37,2013-03-10 22:08:00,
2013-03-10 17:09:00,70.1,41.9,29.83,SSW,198,10.4,10.4,36,0.00,CLR,,0.00,WeatherDisplay:10.37,2013-03-10 22:09:00,
2013-03-10 17:10:00,70.0,42.5,29.82,South,179,9.0,9.0,37,0.00,CLR,,0.00,WeatherDisplay:10.37,2013-03-10 22:10:00,
2013-03-10 17:11:00,70.0,42.5,29.82,SSE,164,9.2,9.2,37,0.00,CLR,,0.00,WeatherDisplay:10.37,2013-03-10 22:11:00,
2013-03-10 17:13:00,69.9,42.4,29.82,SSE,151,6.9,6.9,37,0.00,CLR,,0.00,WeatherDisplay:10.37,2013-03-10 22:13:00,
2013-03-10 17:14:00,69.9,42.4,29.82,South,183,5.8,5.8,37,0.00,CLR,,0.00,WeatherDisplay:10.37,2013-03-10 22:14:00,
2013-03-10 17:15:00,69.9,42.4,29.83,SSW,199,6.9,6.9,37,0.00,CLR,,0.00,WeatherDisplay:10.37,2013-03-10 22:15:00,
2013-03-10 17:17:00,69.9,43.1,29.83,SSE,158,7.0,7.0,38,0.00,CLR,,0.00,WeatherDisplay:10.37,2013-03-10 22:17:00,
2013-03-10 17:18:00,69.9,42.4,29.83,SSE,158,9.2,9.2,37,0.00,CLR,,0.00,WeatherDisplay:10.37,2013-03-10 22:18:00,
2013-03-10 17:19:00,69.9,42.4,29.83,SSW,204,8.0,8.0,37,0.00,CLR,,0.00,WeatherDisplay:10.37,2013-03-10 22:19:00,
2013-03-10 17:20:00,69.9,42.4,29.83,SSE,163,8.1,8.1,37,0.00,CLR,,0.00,WeatherDisplay:10.37,2013-03-10 22:20:00,
2013-03-10 17:22:00,69.9,42.4,29.82,South,181,5.8,5.8,37,0.00,CLR,,0.00,WeatherDisplay:10.37,2013-03-10 22:22:00,
2013-03-10 17:23:00,69.9,42.4,29.82,SSE,164,5.8,5.8,37,0.00,CLR,,0.00,WeatherDisplay:10.37,2013-03-10 22:23:00,
2013-03-10 17:24:00,69.9,42.4,29.82,South,172,3.5,3.5,37,0.00,CLR,,0.00,WeatherDisplay:10.37,2013-03-10 22:24:00,
2013-03-10 17:25:00,69.9,42.4,29.82,South,181,4.6,4.6,37,0.00,CLR,,0.00,WeatherDisplay:10.37,2013-03-10 22:25:00,
2013-03-10 17:27:00,69.9,41.7,29.82,SSW,203,9.2,9.2,36,0.00,CLR,,0.00,WeatherDisplay:10.37,2013-03-10 22:27:00,
2013-03-10 17:28:00,69.9,42.4,29.82,SSW,199,8.1,8.1,37,0.00,CLR,,0.00,WeatherDisplay:10.37,2013-03-10 22:28:00,
2013-03-10 17:29:00,69.9,42.4,29.82,South,184,5.8,5.8,37,0.00,CLR,,0.00,WeatherDisplay:10.37,2013-03-10 22:29:00,
2013-03-10 17:31:00,69.9,42.4,29.82,South,174,6.0,6.0,37,0.00,CLR,,0.00,WeatherDisplay:10.37,2013-03-10 22:31:00,
2013-03-10 17:33:00,69.8,42.3,29.82,SSE,162,12.7,12.7,37,0.00,CLR,,0.00,WeatherDisplay:10.37,2013-03-10 22:33:00,
2013-03-10 17:34:00,69.8,42.3,29.82,South,176,10.4,10.4,37,0.00,CLR,,0.00,WeatherDisplay:10.37,2013-03-10 22:34:00,
2013-03-10 17:36:00,69.8,41.6,29.82,SSE,161,9.2,9.2,36,0.00,CLR,,0.00,WeatherDisplay:10.37,2013-03-10 22:36:00,
2013-03-10 17:38:00,69.8,41.6,29.81,SSW,198,10.4,10.4,36,0.00,CLR,,0.00,WeatherDisplay:10.37,2013-03-10 22:38:00,
2013-03-10 17:39:00,69.8,41.6,29.81,South,189,10.4,10.4,36,0.00,CLR,,0.00,WeatherDisplay:10.37,2013-03-10 22:39:00,
2013-03-10 17:42:00,69.8,41.6,29.81,SSW,203,8.1,8.1,36,0.00,CLR,,0.00,WeatherDisplay:10.37,2013-03-10 22:42:00,
2013-03-10 17:43:00,69.7,42.3,29.81,SSE,160,8.1,8.1,37,0.00,CLR,,0.00,WeatherDisplay:10.37,2013-03-10 22:43:00,
2013-03-10 17:44:00,69.7,42.3,29.81,ESE,123,9.2,9.2,37,0.00,CLR,,0.00,WeatherDisplay:10.37,2013-03-10 22:44:00,
2013-03-10 17:47:00,69.7,42.3,29.80,SSE,147,6.9,6.9,37,0.00,CLR,,0.00,WeatherDisplay:10.37,2013-03-10 22:47:00,
2013-03-10 17:49:00,69.7,42.3,29.80,South,174,8.1,8.1,37,0.00,CLR,,0.00,WeatherDisplay:10.37,2013-03-10 22:49:00,
2013-03-10 17:53:00,69.6,42.2,29.80,SSE,149,9.2,9.2,37,0.00,CLR,,0.00,WeatherDisplay:10.37,2013-03-10 22:53:00,
2013-03-10 17:54:00,69.5,42.1,29.80,SSE,168,5.8,5.8,37,0.00,CLR,,0.00,WeatherDisplay:10.37,2013-03-10 22:54:00,
2013-03-10 17:58:00,69.5,42.1,29.80,South,185,7.0,7.0,37,0.00,CLR,,0.00,WeatherDisplay:10.37,2013-03-10 22:58:00,
2013-03-10 17:59:00,69.4,42.0,29.80,South,185,6.9,6.9,37,0.00,CLR,,0.00,WeatherDisplay:10.37,2013-03-10 22:59:00,
2013-03-10 18:03:00,69.4,42.0,29.81,SSE,147,4.6,4.6,37,0.00,CLR,,0.00,WeatherDisplay:10.37,2013-03-10 23:03:00,
2013-03-10 18:04:00,69.3,41.9,29.81,SSE,159,3.5,3.5,37,0.00,CLR,,0.00,WeatherDisplay:10.37,2013-03-10 23:04:00,
2013-03-10 18:05:00,69.3,41.9,29.81,SSE,161,6.9,6.9,37,0.00,CLR,,0.00,WeatherDisplay:10.37,2013-03-10 23:05:00,
2013-03-10 18:08:00,69.2,41.8,29.81,SSE,158,3.5,3.5,37,0.00,CLR,,0.00,WeatherDisplay:10.37,2013-03-10 23:08:00,
2013-03-10 18:09:00,69.2,42.5,29.81,SE,141,6.9,6.9,38,0.00,CLR,,0.00,WeatherDisplay:10.37,2013-03-10 23:09:00,
2013-03-10 18:10:00,69.2,41.8,29.81,SSE,162,8.1,8.1,37,0.00,CLR,,0.00,WeatherDisplay:10.37,2013-03-10 23:10:00,
2013-03-10 18:13:00,69.2,42.5,29.80,South,172,3.5,3.5,38,0.00,CLR,,0.00,WeatherDisplay:10.37,2013-03-10 23:13:00,
2013-03-10 18:14:00,69.2,42.5,29.81,South,172,3.5,3.5,38,0.00,CLR,,0.00,WeatherDisplay:10.37,2013-03-10 23:14:00,
2013-03-10 18:15:00,69.2,42.5,29.81,SSE,164,11.5,11.5,38,0.00,CLR,,0.00,WeatherDisplay:10.37,2013-03-10 23:15:00,
2013-03-10 18:18:00,69.1,42.4,29.81,South,184,8.1,8.1,38,0.00,CLR,,0.00,WeatherDisplay:10.37,2013-03-10 23:18:00,
2013-03-10 18:19:00,69.1,42.4,29.81,South,184,3.5,3.5,38,0.00,CLR,,0.00,WeatherDisplay:10.37,2013-03-10 23:19:00,
2013-03-10 18:20:00,69.1,42.4,29.81,South,184,3.5,3.5,38,0.00,CLR,,0.00,WeatherDisplay:10.37,2013-03-10 23:20:00,
2013-03-10 18:23:00,69.0,42.3,29.81,SSW,192,4.6,4.6,38,0.00,CLR,,0.00,WeatherDisplay:10.37,2013-03-10 23:23:00,
2013-03-10 18:24:00,69.0,43.0,29.81,SSW,195,4.6,4.6,39,0.00,CLR,,0.00,WeatherDisplay:10.37,2013-03-10 23:24:00,
2013-03-10 18:25:00,69.0,43.0,29.81,SSW,193,6.0,6.0,39,0.00,CLR,,0.00,WeatherDisplay:10.37,2013-03-10 23:25:00,
2013-03-10 18:29:00,69.0,43.0,29.81,South,170,3.5,3.5,39,0.00,CLR,,0.00,WeatherDisplay:10.37,2013-03-10 23:29:00,
2013-03-10 18:30:00,69.0,43.0,29.81,SSW,192,3.0,3.0,39,0.00,CLR,,0.00,WeatherDisplay:10.37,2013-03-10 23:30:00,
2013-03-10 18:34:00,68.8,42.8,29.81,South,188,4.6,4.6,39,0.00,CLR,,0.00,WeatherDisplay:10.37,2013-03-10 23:34:00,
2013-03-10 18:35:00,68.8,42.8,29.81,SSE,165,3.5,3.5,39,0.00,CLR,,0.00,WeatherDisplay:10.37,2013-03-10 23:35:00,
2013-03-10 18:39:00,68.7,43.4,29.80,SSE,164,3.5,3.5,40,0.00,CLR,,0.00,WeatherDisplay:10.37,2013-03-10 23:39:00,
2013-03-10 18:40:00,68.7,43.4,29.80,SSE,164,3.5,3.5,40,0.00,CLR,,0.00,WeatherDisplay:10.37,2013-03-10 23:40:00,
2013-03-10 18:44:00,68.6,43.3,29.80,SSE,160,5.8,5.8,40,0.00,CLR,,0.00,WeatherDisplay:10.37,2013-03-10 23:44:00,
2013-03-10 18:45:00,68.6,43.3,29.80,South,174,4.6,4.6,40,0.00,CLR,,0.00,WeatherDisplay:10.37,2013-03-10 23:45:00,
2013-03-10 18:49:00,68.5,43.2,29.80,SSE,149,6.9,6.9,40,0.00,CLR,,0.00,WeatherDisplay:10.37,2013-03-10 23:49:00,
2013-03-10 18:50:00,68.5,43.2,29.79,South,190,5.8,5.8,40,0.00,CLR,,0.00,WeatherDisplay:10.37,2013-03-10 23:50:00,
2013-03-10 18:51:00,68.5,43.2,29.80,SSE,162,4.0,4.0,40,0.00,CLR,,0.00,WeatherDisplay:10.37,2013-03-10 23:51:00,
2013-03-10 18:54:00,68.5,43.2,29.79,SSE,155,4.6,4.6,40,0.00,CLR,,0.00,WeatherDisplay:10.37,2013-03-10 23:54:00,
2013-03-10 18:55:00,68.5,43.2,29.79,South,178,4.6,4.6,40,0.00,CLR,,0.00,WeatherDisplay:10.37,2013-03-10 23:55:00,
2013-03-10 18:56:00,68.5,43.2,29.79,SSW,202,8.1,8.1,40,0.00,CLR,,0.00,WeatherDisplay:10.37,2013-03-10 23:56:00,
2013-03-10 18:59:00,68.5,43.2,29.79,SSE,148,5.8,5.8,40,0.00,CLR,,0.00,WeatherDisplay:10.37,2013-03-10 23:59:00,
2013-03-10 19:00:00,68.5,43.9,29.79,South,176,5.8,5.8,41,0.00,CLR,,0.00,WeatherDisplay:10.37,2013-03-11 00:00:00,
2013-03-10 19:01:00,68.5,43.2,29.79,SSE,165,4.0,4.0,40,0.00,CLR,,0.00,WeatherDisplay:10.37,2013-03-11 00:01:00,
2013-03-10 19:02:00,68.5,43.2,29.79,SSE,165,3.5,3.5,40,0.00,CLR,,0.00,WeatherDisplay:10.37,2013-03-11 00:02:00,
2013-03-10 19:04:00,68.5,43.2,29.79,SSE,168,2.3,2.3,40,0.00,CLR,,0.00,WeatherDisplay:10.37,2013-03-11 00:04:00,
2013-03-10 19:05:00,68.4,43.1,29.79,SSE,168,2.3,2.3,40,0.00,CLR,,0.00,WeatherDisplay:10.37,2013-03-11 00:05:00,
2013-03-10 19:07:00,68.4,43.8,29.79,SSE,168,2.3,2.3,41,0.00,CLR,,0.00,WeatherDisplay:10.37,2013-03-11 00:07:00,
2013-03-10 19:09:00,68.2,43.6,29.79,South,176,3.5,3.5,41,0.00,CLR,,0.00,WeatherDisplay:10.37,2013-03-11 00:09:00,
2013-03-10 19:10:00,68.1,43.5,29.79,South,176,3.5,3.5,41,0.00,CLR,,0.00,WeatherDisplay:10.37,2013-03-11 00:10:00,
2013-03-10 19:12:00,68.1,43.5,29.79,South,176,2.0,2.0,41,0.00,CLR,,0.00,WeatherDisplay:10.37,2013-03-11 00:12:00,
2013-03-10 19:13:00,68.0,44.0,29.79,South,176,2.3,2.3,42,0.00,CLR,,0.00,WeatherDisplay:10.37,2013-03-11 00:13:00,
2013-03-10 19:15:00,67.9,43.3,29.79,South,176,2.3,2.3,41,0.00,CLR,,0.00,WeatherDisplay:10.37,2013-03-11 00:15:00,
2013-03-10 19:17:00,67.8,43.9,29.79,SSE,148,2.3,2.3,42,0.00,CLR,,0.00,WeatherDisplay:10.37,2013-03-11 00:17:00,
2013-03-10 19:18:00,67.8,43.9,29.80,SSE,148,4.6,4.6,42,0.00,CLR,,0.00,WeatherDisplay:10.37,2013-03-11 00:18:00,
2013-03-10 19:20:00,67.7,43.8,29.80,SSE,166,2.3,2.3,42,0.00,CLR,,0.00,WeatherDisplay:10.37,2013-03-11 00:20:00,
2013-03-10 19:23:00,67.6,43.7,29.80,SSE,164,2.3,2.3,42,0.00,CLR,,0.00,WeatherDisplay:10.37,2013-03-11 00:23:00,
2013-03-10 19:25:00,67.5,43.6,29.80,SSE,156,4.0,4.0,42,0.00,CLR,,0.00,WeatherDisplay:10.37,2013-03-11 00:25:00,
2013-03-10 19:28:00,67.5,43.6,29.80,SSE,157,4.6,4.6,42,0.00,CLR,,0.00,WeatherDisplay:10.37,2013-03-11 00:28:00,
2013-03-10 19:29:00,67.5,43.6,29.80,SSE,160,4.0,4.0,42,0.00,CLR,,0.00,WeatherDisplay:10.37,2013-03-11 00:29:00,
2013-03-10 19:30:00,67.6,43.7,29.80,SSE,164,3.5,3.5,42,0.00,CLR,,0.00,WeatherDisplay:10.37,2013-03-11 00:30:00,
2013-03-10 19:31:00,67.6,43.7,29.80,SSE,158,5.8,5.8,42,0.00,CLR,,0.00,WeatherDisplay:10.37,2013-03-11 00:31:00,
2013-03-10 19:33:00,67.7,43.8,29.80,South,189,4.0,4.0,42,0.00,CLR,,0.00,WeatherDisplay:10.37,2013-03-11 00:33:00,
2013-03-10 19:34:00,67.7,43.8,29.80,SSW,195,3.5,3.5,42,0.00,CLR,,0.00,WeatherDisplay:10.37,2013-03-11 00:34:00,
2013-03-10 19:35:00,67.7,43.8,29.80,SSE,156,3.5,3.5,42,0.00,CLR,,0.00,WeatherDisplay:10.37,2013-03-11 00:35:00,
2013-03-10 19:36:00,67.8,43.9,29.80,SSE,157,4.6,4.6,42,0.00,CLR,,0.00,WeatherDisplay:10.37,2013-03-11 00:36:00,
2013-03-10 19:38:00,67.8,43.2,29.80,SSW,199,4.6,4.6,41,0.00,CLR,,0.00,WeatherDisplay:10.37,2013-03-11 00:38:00,
2013-03-10 19:39:00,67.9,43.3,29.80,South,180,6.9,6.9,41,0.00,CLR,,0.00,WeatherDisplay:10.37,2013-03-11 00:39:00,
2013-03-10 19:40:00,68.0,43.4,29.80,SSE,160,5.8,5.8,41,0.00,CLR,,0.00,WeatherDisplay:10.37,2013-03-11 00:40:00,
2013-03-10 19:42:00,68.1,43.5,29.79,SSE,159,6.9,6.9,41,0.00,CLR,,0.00,WeatherDisplay:10.37,2013-03-11 00:42:00,
2013-03-10 19:43:00,68.2,43.6,29.79,South,182,6.9,6.9,41,0.00,CLR,,0.00,WeatherDisplay:10.37,2013-03-11 00:43:00,
2013-03-10 19:44:00,68.2,43.6,29.79,SSW,202,6.9,6.9,41,0.00,CLR,,0.00,WeatherDisplay:10.37,2013-03-11 00:44:00,
2013-03-10 19:45:00,68.3,43.7,29.79,SSE,167,4.6,4.6,41,0.00,CLR,,0.00,WeatherDisplay:10.37,2013-03-11 00:45:00,
2013-03-10 19:47:00,68.3,43.7,29.80,South,179,8.1,8.1,41,0.00,CLR,,0.00,WeatherDisplay:10.37,2013-03-11 00:47:00,
2013-03-10 19:49:00,68.3,43.7,29.80,South,187,3.5,3.5,41,0.00,CLR,,0.00,WeatherDisplay:10.37,2013-03-11 00:49:00,
2013-03-10 19:51:00,68.3,43.7,29.79,South,180,6.9,6.9,41,0.00,CLR,,0.00,WeatherDisplay:10.37,2013-03-11 00:51:00,
2013-03-10 19:53:00,68.3,43.7,29.79,SSE,163,8.0,8.0,41,0.00,CLR,,0.00,WeatherDisplay:10.37,2013-03-11 00:53:00,
2013-03-10 19:54:00,68.4,43.8,29.80,SSW,195,9.2,9.2,41,0.00,CLR,,0.00,WeatherDisplay:10.37,2013-03-11 00:54:00,
2013-03-10 19:57:00,68.5,43.9,29.80,SSE,155,8.1,8.1,41,0.00,CLR,,0.00,WeatherDisplay:10.37,2013-03-11 00:57:00,
2013-03-10 19:58:00,68.5,43.9,29.80,South,179,3.5,3.5,41,0.00,CLR,,0.00,WeatherDisplay:10.37,2013-03-11 00:58:00,
2013-03-10 19:59:00,68.5,43.9,29.80,South,172,4.6,4.6,41,0.00,CLR,,0.00,WeatherDisplay:10.37,2013-03-11 00:59:00,
2013-03-10 20:03:00,68.5,43.9,29.79,ESE,118,9.0,9.0,41,0.00,CLR,,0.00,WeatherDisplay:10.37,2013-03-11 01:03:00,
2013-03-10 20:04:00,68.5,43.9,29.79,SSE,158,9.2,9.2,41,0.00,CLR,,0.00,WeatherDisplay:10.37,2013-03-11 01:04:00,
2013-03-10 20:08:00,68.5,45.1,29.79,SE,142,5.8,5.8,43,0.00,CLR,,0.00,WeatherDisplay:10.37,2013-03-11 01:08:00,
2013-03-10 20:09:00,68.4,45.0,29.79,SW,216,9.2,9.2,43,0.00,CLR,,0.00,WeatherDisplay:10.37,2013-03-11 01:09:00,
2013-03-10 20:10:00,68.4,45.0,29.79,South,181,9.2,9.2,43,0.00,CLR,,0.00,WeatherDisplay:10.37,2013-03-11 01:10:00,
2013-03-10 20:14:00,68.4,45.0,29.79,South,189,5.8,5.8,43,0.00,CLR,,0.00,WeatherDisplay:10.37,2013-03-11 01:14:00,
2013-03-10 20:15:00,68.4,45.0,29.79,SE,134,9.2,9.2,43,0.00,CLR,,0.00,WeatherDisplay:10.37,2013-03-11 01:15:00,
2013-03-10 20:19:00,68.3,44.9,29.79,SSE,165,7.0,7.0,43,0.00,CLR,,0.00,WeatherDisplay:10.37,2013-03-11 01:19:00,
2013-03-10 20:20:00,68.4,45.0,29.79,SSE,162,6.9,6.9,43,0.00,CLR,,0.00,WeatherDisplay:10.37,2013-03-11 01:20:00,
2013-03-10 20:24:00,68.3,45.5,29.79,SSE,152,9.2,9.2,44,0.00,CLR,,0.00,WeatherDisplay:10.37,2013-03-11 01:24:00,
2013-03-10 20:25:00,68.3,44.9,29.79,SSW,203,8.1,8.1,43,0.00,CLR,,0.00,WeatherDisplay:10.37,2013-03-11 01:25:00,
2013-03-10 20:29:00,68.3,44.9,29.78,South,191,9.2,9.2,43,0.00,CLR,,0.00,WeatherDisplay:10.37,2013-03-11 01:29:00,
2013-03-10 20:30:00,68.4,45.0,29.79,SSE,166,9.2,9.2,43,0.00,CLR,,0.00,WeatherDisplay:10.37,2013-03-11 01:30:00,
2013-03-10 20:34:00,68.6,44.6,29.79,South,186,11.5,11.5,42,0.00,CLR,,0.00,WeatherDisplay:10.37,2013-03-11 01:34:00,
2013-03-10 20:35:00,68.6,44.6,29.79,SSW,203,12.7,12.7,42,0.00,CLR,,0.00,WeatherDisplay:10.37,2013-03-11 01:35:00,
2013-03-10 20:40:00,68.7,44.7,29.79,SE,142,11.5,11.5,42,0.00,CLR,,0.00,WeatherDisplay:10.37,2013-03-11 01:40:00,
2013-03-10 20:45:00,68.7,44.7,29.78,South,189,10.4,10.4,42,0.00,CLR,,0.00,WeatherDisplay:10.37,2013-03-11 01:45:00,
2013-03-10 20:50:00,68.7,45.3,29.78,SSE,156,9.2,9.2,43,0.00,CLR,,0.00,WeatherDisplay:10.37,2013-03-11 01:50:00,
2013-03-10 20:55:00,68.7,45.3,29.78,South,185,11.5,11.5,43,0.00,CLR,,0.00,WeatherDisplay:10.37,2013-03-11 01:55:00,
2013-03-10 20:57:00,68.7,45.3,29.79,SSW,194,9.2,9.2,43,0.00,CLR,,0.00,WeatherDisplay:10.37,2013-03-11 01:57:00,
2013-03-10 21:00:00,68.6,45.8,29.79,South,181,9.2,9.2,44,0.00,CLR,,0.00,WeatherDisplay:10.37,2013-03-11 02:00:00,
2013-03-10 21:02:00,68.6,45.8,29.79,SE,137,10.4,10.4,44,0.00,CLR,,0.00,WeatherDisplay:10.37,2013-03-11 02:02:00,
2013-03-10 21:05:00,68.6,45.8,29.79,SSE,153,9.2,9.2,44,0.00,CLR,,0.00,WeatherDisplay:10.37,2013-03-11 02:05:00,
2013-03-10 21:07:00,68.6,45.8,29.79,SSE,162,9.0,9.0,44,0.00,CLR,,0.00,WeatherDisplay:10.37,2013-03-11 02:07:00,
2013-03-10 21:10:00,68.6,45.8,29.79,South,182,11.5,11.5,44,0.00,CLR,,0.00,WeatherDisplay:10.37,2013-03-11 02:10:00,
2013-03-10 21:11:00,68.6,45.8,29.79,SW,216,11.5,11.5,44,0.00,CLR,,0.00,WeatherDisplay:10.37,2013-03-11 02:11:00,
2013-03-10 21:12:00,68.6,45.8,29.79,SSW,202,11.5,11.5,44,0.00,CLR,,0.00,WeatherDisplay:10.37,2013-03-11 02:12:00,
2013-03-10 21:13:00,68.6,45.8,29.79,SSE,147,11.5,11.5,44,0.00,CLR,,0.00,WeatherDisplay:10.37,2013-03-11 02:13:00,
2013-03-10 21:16:00,68.6,45.8,29.79,SSE,168,10.4,10.4,44,0.00,CLR,,0.00,WeatherDisplay:10.37,2013-03-11 02:16:00,
2013-03-10 21:17:00,68.7,46.5,29.79,South,190,10.4,10.4,45,0.00,CLR,,0.00,WeatherDisplay:10.37,2013-03-11 02:17:00,
2013-03-10 21:18:00,68.7,46.5,29.79,SSE,150,6.9,6.9,45,0.00,CLR,,0.00,WeatherDisplay:10.37,2013-03-11 02:18:00,
2013-03-10 21:21:00,68.6,46.4,29.78,SSE,161,8.1,8.1,45,0.00,CLR,,0.00,WeatherDisplay:10.37,2013-03-11 02:21:00,
2013-03-10 21:22:00,68.6,46.4,29.78,South,190,11.0,11.0,45,0.00,CLR,,0.00,WeatherDisplay:10.37,2013-03-11 02:22:00,
2013-03-10 21:23:00,68.6,46.4,29.79,South,170,11.5,11.5,45,0.00,CLR,,0.00,WeatherDisplay:10.37,2013-03-11 02:23:00,
2013-03-10 21:26:00,68.7,46.5,29.78,South,179,13.8,13.8,45,0.00,CLR,,0.00,WeatherDisplay:10.37,2013-03-11 02:26:00,
2013-03-10 21:28:00,68.7,46.5,29.78,SSE,164,9.2,9.2,45,0.00,CLR,,0.00,WeatherDisplay:10.37,2013-03-11 02:28:00,
2013-03-10 21:32:00,68.7,46.5,29.78,SSE,148,11.5,11.5,45,0.00,CLR,,0.00,WeatherDisplay:10.37,2013-03-11 02:32:00,
2013-03-10 21:33:00,68.6,46.4,29.79,SSE,158,11.0,11.0,45,0.00,CLR,,0.00,WeatherDisplay:10.37,2013-03-11 02:33:00,
2013-03-10 21:37:00,68.5,46.9,29.79,South,188,8.0,8.0,46,0.00,CLR,,0.00,WeatherDisplay:10.37,2013-03-11 02:37:00,
2013-03-10 21:38:00,68.4,47.4,29.78,SSW,209,11.5,11.5,47,0.00,CLR,,0.00,WeatherDisplay:10.37,2013-03-11 02:38:00,
2013-03-10 21:42:00,68.3,47.3,29.78,South,172,11.5,11.5,47,0.00,CLR,,0.00,WeatherDisplay:10.37,2013-03-11 02:42:00,
2013-03-10 21:43:00,68.2,47.2,29.78,SSE,163,11.5,11.5,47,0.00,CLR,,0.00,WeatherDisplay:10.37,2013-03-11 02:43:00,
2013-03-10 21:44:00,68.2,47.2,29.78,SE,145,11.5,11.5,47,0.00,CLR,,0.00,WeatherDisplay:10.37,2013-03-11 02:44:00,
2013-03-10 21:47:00,68.0,47.6,29.78,SSW,193,11.5,11.5,48,0.00,CLR,,0.00,WeatherDisplay:10.37,2013-03-11 02:47:00,
2013-03-10 21:48:00,67.9,47.5,29.78,South,187,9.2,9.2,48,0.00,CLR,,0.00,WeatherDisplay:10.37,2013-03-11 02:48:00,
2013-03-10 21:49:00,67.9,47.5,29.78,South,183,9.2,9.2,48,0.00,CLR,,0.00,WeatherDisplay:10.37,2013-03-11 02:49:00,
2013-03-10 21:52:00,67.8,47.4,29.78,SSE,160,6.9,6.9,48,0.00,CLR,,0.00,WeatherDisplay:10.37,2013-03-11 02:52:00,
2013-03-10 21:53:00,67.8,47.9,29.78,South,187,9.2,9.2,49,0.00,CLR,,0.00,WeatherDisplay:10.37,2013-03-11 02:53:00,
2013-03-10 21:54:00,67.8,47.9,29.78,South,186,10.4,10.4,49,0.00,CLR,,0.00,WeatherDisplay:10.37,2013-03-11 02:54:00,
2013-03-10 21:57:00,67.7,47.8,29.78,SSE,155,11.5,11.5,49,0.00,CLR,,0.00,WeatherDisplay:10.37,2013-03-11 02:57:00,
2013-03-10 21:59:00,67.7,47.8,29.78,South,178,11.5,11.5,49,0.00,CLR,,0.00,WeatherDisplay:10.37,2013-03-11 02:59:00,
2013-03-10 22:03:00,67.7,47.8,29.78,SSE,160,10.4,10.4,49,0.00,CLR,,0.00,WeatherDisplay:10.37,2013-03-11 03:03:00,
2013-03-10 22:04:00,67.7,48.4,29.78,SSE,153,6.9,6.9,50,0.00,CLR,,0.00,WeatherDisplay:10.37,2013-03-11 03:04:00,
2013-03-10 22:08:00,67.7,47.8,29.78,South,182,6.9,6.9,49,0.00,CLR,,0.00,WeatherDisplay:10.37,2013-03-11 03:08:00,
2013-03-10 22:09:00,67.8,47.9,29.78,SSE,160,13.8,13.8,49,0.00,CLR,,0.00,WeatherDisplay:10.37,2013-03-11 03:09:00,
2013-03-10 22:10:00,67.8,47.9,29.78,SSE,167,13.8,13.8,49,0.00,CLR,,0.00,WeatherDisplay:10.37,2013-03-11 03:10:00,
2013-03-10 22:13:00,67.8,48.5,29.78,SSE,149,8.1,8.1,50,0.00,CLR,,0.00,WeatherDisplay:10.37,2013-03-11 03:13:00,
2013-03-10 22:14:00,67.8,48.5,29.78,SSW,197,8.1,8.1,50,0.00,CLR,,0.00,WeatherDisplay:10.37,2013-03-11 03:14:00,
2013-03-10 22:15:00,67.9,48.6,29.78,SSW,208,9.2,9.2,50,0.00,CLR,,0.00,WeatherDisplay:10.37,2013-03-11 03:15:00,
2013-03-10 22:18:00,68.0,48.7,29.78,SW,220,16.1,16.1,50,0.00,CLR,,0.00,WeatherDisplay:10.37,2013-03-11 03:18:00,
2013-03-10 22:19:00,68.0,48.1,29.78,South,172,12.7,12.7,49,0.00,CLR,,0.00,WeatherDisplay:10.37,2013-03-11 03:19:00,
2013-03-10 22:20:00,68.0,48.7,29.78,SSE,164,10.4,10.4,50,0.00,CLR,,0.00,WeatherDisplay:10.37,2013-03-11 03:20:00,
2013-03-10 22:23:00,68.1,48.2,29.78,SSE,164,11.5,11.5,49,0.00,CLR,,0.00,WeatherDisplay:10.37,2013-03-11 03:23:00,
2013-03-10 22:24:00,68.1,48.2,29.78,SSE,156,9.2,9.2,49,0.00,CLR,,0.00,WeatherDisplay:10.37,2013-03-11 03:24:00,
2013-03-10 22:25:00,68.1,48.8,29.78,South,176,9.2,9.2,50,0.00,CLR,,0.00,WeatherDisplay:10.37,2013-03-11 03:25:00,
2013-03-10 22:28:00,68.1,48.2,29.78,SSW,204,15.0,15.0,49,0.00,CLR,,0.00,WeatherDisplay:10.37,2013-03-11 03:28:00,
2013-03-10 22:29:00,68.1,48.2,29.78,South,176,19.6,19.6,49,0.00,CLR,,0.00,WeatherDisplay:10.37,2013-03-11 03:29:00,
2013-03-10 22:30:00,68.1,48.2,29.78,South,185,11.5,11.5,49,0.00,CLR,,0.00,WeatherDisplay:10.37,2013-03-11 03:30:00,
2013-03-10 22:33:00,68.2,48.3,29.78,South,177,11.5,11.5,49,0.00,CLR,,0.00,WeatherDisplay:10.37,2013-03-11 03:33:00,
2013-03-10 22:34:00,68.2,48.3,29.78,SSW,202,13.8,13.8,49,0.00,CLR,,0.00,WeatherDisplay:10.37,2013-03-11 03:34:00,
2013-03-10 22:35:00,68.2,48.8,29.77,South,179,11.5,11.5,50,0.00,CLR,,0.00,WeatherDisplay:10.37,2013-03-11 03:35:00,
2013-03-10 22:39:00,68.3,48.4,29.77,SSW,206,7.0,7.0,49,0.00,CLR,,0.00,WeatherDisplay:10.37,2013-03-11 03:39:00,
2013-03-10 22:40:00,68.2,48.8,29.77,South,178,14.0,14.0,50,0.00,CLR,,0.00,WeatherDisplay:10.37,2013-03-11 03:40:00,
2013-03-10 22:44:00,68.1,48.8,29.78,SSW,199,10.4,10.4,50,0.00,CLR,,0.00,WeatherDisplay:10.37,2013-03-11 03:44:00,
2013-03-10 22:45:00,68.1,48.8,29.78,SW,228,10.4,10.4,50,0.00,CLR,,0.00,WeatherDisplay:10.37,2013-03-11 03:45:00,
2013-03-10 22:46:00,68.1,48.8,29.77,SSE,147,11.0,11.0,50,0.00,CLR,,0.00,WeatherDisplay:10.37,2013-03-11 03:46:00,
2013-03-10 22:49:00,68.0,49.2,29.77,South,174,8.1,8.1,51,0.00,CLR,,0.00,WeatherDisplay:10.37,2013-03-11 03:49:00,
2013-03-10 22:50:00,68.0,49.2,29.77,SSE,164,8.1,8.1,51,0.00,CLR,,0.00,WeatherDisplay:10.37,2013-03-11 03:50:00,
2013-03-10 22:51:00,68.0,49.2,29.77,South,176,9.2,9.2,51,0.00,CLR,,0.00,WeatherDisplay:10.37,2013-03-11 03:51:00,
2013-03-10 22:55:00,67.9,49.1,29.77,South,187,11.5,11.5,51,0.00,CLR,,0.00,WeatherDisplay:10.37,2013-03-11 03:55:00,
2013-03-10 22:57:00,67.9,49.6,29.77,SSW,206,9.2,9.2,52,0.00,CLR,,0.00,WeatherDisplay:10.37,2013-03-11 03:57:00,
2013-03-10 23:00:00,68.0,49.7,29.77,SSE,151,16.1,16.1,52,0.00,CLR,,0.00,WeatherDisplay:10.37,2013-03-11 04:00:00,
2013-03-10 23:05:00,68.1,49.8,29.77,South,185,10.4,10.4,52,0.00,CLR,,0.00,WeatherDisplay:10.37,2013-03-11 04:05:00,
2013-03-10 23:10:00,68.0,49.7,29.77,South,170,11.5,11.5,52,0.00,CLR,,0.00,WeatherDisplay:10.37,2013-03-11 04:10:00,
2013-03-10 23:11:00,68.1,49.8,29.76,SSE,166,17.3,17.3,52,0.00,CLR,,0.00,WeatherDisplay:10.37,2013-03-11 04:11:00,
2013-03-10 23:15:00,68.2,49.9,29.77,WSW,241,13.8,13.8,52,0.00,CLR,,0.00,WeatherDisplay:10.37,2013-03-11 04:15:00,
2013-03-10 23:17:00,68.2,49.9,29.77,SSW,195,12.7,12.7,52,0.00,CLR,,0.00,WeatherDisplay:10.37,2013-03-11 04:17:00,
2013-03-10 23:20:00,68.2,49.9,29.77,South,176,13.8,13.8,52,0.00,CLR,,0.00,WeatherDisplay:10.37,2013-03-11 04:20:00,
2013-03-10 23:22:00,68.2,49.9,29.78,South,190,11.5,11.5,52,0.00,CLR,,0.00,WeatherDisplay:10.37,2013-03-11 04:22:00,
2013-03-10 23:25:00,68.2,49.9,29.77,SSE,154,11.5,11.5,52,0.00,CLR,,0.00,WeatherDisplay:10.37,2013-03-11 04:25:00,
2013-03-10 23:26:00,68.1,49.8,29.78,WSW,241,9.2,9.2,52,0.00,CLR,,0.00,WeatherDisplay:10.37,2013-03-11 04:26:00,
2013-03-10 23:27:00,68.1,49.8,29.77,SSE,162,8.1,8.1,52,0.00,CLR,,0.00,WeatherDisplay:10.37,2013-03-11 04:27:00,
2013-03-10 23:30:00,68.1,49.8,29.77,SSW,195,12.7,12.7,52,0.00,CLR,,0.00,WeatherDisplay:10.37,2013-03-11 04:30:00,
2013-03-10 23:32:00,68.1,49.8,29.77,SSW,195,9.2,9.2,52,0.00,CLR,,0.00,WeatherDisplay:10.37,2013-03-11 04:32:00,
2013-03-10 23:35:00,68.1,49.8,29.77,South,178,15.0,15.0,52,0.00,CLR,,0.00,WeatherDisplay:10.37,2013-03-11 04:35:00,
2013-03-10 23:37:00,68.1,49.8,29.76,SSW,196,13.0,13.0,52,0.00,CLR,,0.00,WeatherDisplay:10.37,2013-03-11 04:37:00,
2013-03-10 23:40:00,68.2,49.9,29.77,SW,216,15.0,15.0,52,0.00,CLR,,0.00,WeatherDisplay:10.37,2013-03-11 04:40:00,
2013-03-10 23:42:00,68.3,50.0,29.77,SW,216,15.0,15.0,52,0.00,CLR,,0.00,WeatherDisplay:10.37,2013-03-11 04:42:00,
2013-03-10 23:43:00,68.3,50.0,29.77,SSW,198,10.4,10.4,52,0.00,CLR,,0.00,WeatherDisplay:10.37,2013-03-11 04:43:00,
2013-03-10 23:45:00,68.2,49.9,29.77,SSW,210,9.2,9.2,52,0.00,CLR,,0.00,WeatherDisplay:10.37,2013-03-11 04:45:00,
2013-03-10 23:47:00,68.2,50.4,29.77,SSW,195,20.7,20.7,53,0.00,CLR,,0.00,WeatherDisplay:10.37,2013-03-11 04:47:00,
2013-03-10 23:48:00,68.2,50.4,29.77,South,179,14.0,14.0,53,0.00,CLR,,0.00,WeatherDisplay:10.37,2013-03-11 04:48:00,
2013-03-10 23:50:00,68.1,50.8,29.77,South,174,16.1,16.1,54,0.00,CLR,,0.00,WeatherDisplay:10.37,2013-03-11 04:50:00,
2013-03-10 23:52:00,68.1,50.8,29.77,South,178,11.5,11.5,54,0.00,CLR,,0.00,WeatherDisplay:10.37,2013-03-11 04:52:00,
2013-03-10 23:53:00,68.1,50.8,29.77,South,174,17.3,17.3,54,0.00,CLR,,0.00,WeatherDisplay:10.37,2013-03-11 04:53:00,
2013-03-10 23:56:00,68.0,50.7,29.77,South,183,13.8,13.8,54,0.00,CLR,,0.00,WeatherDisplay:10.37,2013-03-11 04:56:00,
2013-03-10 23:58:00,67.9,51.1,29.77,South,176,11.5,11.5,55,0.00,CLR,,0.00,WeatherDisplay:10.37,2013-03-11 04:58:00,
2013-03-10 23:59:00,67.9,51.1,29.77,SSW,206,16.1,16.1,55,0.00,CLR,,0.00,WeatherDisplay:10.37,2013-03-11 04:59:00,